| time (UTC) | temp F | wind direction | speed knots | gust knots | rain 1hr in | rain 24hr in | rain mn in | humidity % | barometer mb |
| 20260510103804 | 54 | 226 | 2.6 | 15.6 | 0.00 | 0.00 | 0.00 | 78 | 1015.8 |
| 20260510103703 | 54 | 137 | 2.6 | 15.6 | 0.00 | 0.00 | 0.00 | 77 | 1016.0 |
| 20260510103613 | 54 | 137 | 2.6 | 15.6 | 0.00 | 0.00 | 0.00 | 77 | 1016.0 |
| 20260510103604 | 54 | 163 | 2.6 | 15.6 | 0.00 | 0.00 | 0.00 | 77 | 1015.9 |
| 20260510103504 | 55 | 253 | 2.6 | 15.6 | 0.00 | 0.00 | 0.00 | 78 | 1015.7 |
| 20260510103416 | 55 | 253 | 2.6 | 15.6 | 0.00 | 0.00 | 0.00 | 78 | 1015.7 |
| 20260510103303 | 55 | 299 | 2.6 | 13.9 | 0.00 | 0.00 | 0.00 | 78 | 1015.8 |
| 20260510103103 | 55 | 208 | 2.6 | 13.9 | 0.00 | 0.00 | 0.00 | 78 | 1015.9 |
| 20260510103003 | 55 | 220 | 2.6 | 13.9 | 0.00 | 0.00 | 0.00 | 78 | 1015.8 |
| 20260510102904 | 55 | 268 | 2.6 | 13.9 | 0.00 | 0.00 | 0.00 | 78 | 1016.0 |
| 20260510102804 | 55 | 296 | 2.6 | 13.9 | 0.00 | 0.00 | 0.00 | 78 | 1016.0 |
| 20260510102703 | 54 | 271 | 2.6 | 13.9 | 0.00 | 0.00 | 0.00 | 79 | 1015.8 |
| 20260510102603 | 54 | 300 | 2.6 | 13.9 | 0.00 | 0.00 | 0.00 | 78 | 1015.9 |
| 20260510102504 | 54 | 257 | 2.6 | 13.9 | 0.00 | 0.00 | 0.00 | 78 | 1015.9 |
| 20260510102417 | 54 | 257 | 2.6 | 13.9 | 0.00 | 0.00 | 0.00 | 78 | 1015.9 |
| 20260510102403 | 54 | 248 | 2.6 | 13.9 | 0.00 | 0.00 | 0.00 | 78 | 1015.7 |
| 20260510102305 | 54 | 246 | 2.6 | 13.9 | 0.00 | 0.00 | 0.00 | 78 | 1015.8 |
| 20260510102103 | 54 | 46 | 2.6 | 8.7 | 0.00 | 0.00 | 0.00 | 78 | 1015.8 |
| 20260510102003 | 54 | 221 | 2.6 | 8.7 | 0.00 | 0.00 | 0.00 | 78 | 1015.7 |
| 20260510101904 | 54 | 134 | 2.6 | 8.7 | 0.00 | 0.00 | 0.00 | 78 | 1015.7 |
| 20260510101803 | 54 | 158 | 2.6 | 8.7 | 0.00 | 0.00 | 0.00 | 78 | 1016.0 |
| 20260510101704 | 54 | 135 | 2.6 | 8.7 | 0.00 | 0.00 | 0.00 | 78 | 1015.8 |
| 20260510101603 | 54 | 138 | 2.6 | 8.7 | 0.00 | 0.00 | 0.00 | 78 | 1015.7 |
| 20260510101514 | 54 | 138 | 2.6 | 8.7 | 0.00 | 0.00 | 0.00 | 78 | 1015.7 |
| 20260510101503 | 54 | 95 | 2.6 | 8.7 | 0.00 | 0.00 | 0.00 | 78 | 1015.9 |
| 20260510101413 | 54 | 95 | 2.6 | 8.7 | 0.00 | 0.00 | 0.00 | 78 | 1015.9 |
| 20260510101403 | 54 | 109 | 2.6 | 8.7 | 0.00 | 0.00 | 0.00 | 78 | 1015.9 |
| 20260510101113 | 54 | 106 | 3.5 | 9.6 | 0.00 | 0.00 | 0.00 | 77 | 1015.8 |
| 20260510101103 | 54 | 107 | 3.5 | 9.6 | 0.00 | 0.00 | 0.00 | 77 | 1015.8 |
| 20260510101017 | 54 | 107 | 3.5 | 9.6 | 0.00 | 0.00 | 0.00 | 77 | 1015.8 |
| 20260510101003 | 54 | 92 | 3.5 | 9.6 | 0.00 | 0.00 | 0.00 | 77 | 1015.8 |
| 20260510100916 | 54 | 92 | 3.5 | 9.6 | 0.00 | 0.00 | 0.00 | 77 | 1015.8 |
| 20260510100604 | 54 | 89 | 3.5 | 9.6 | 0.00 | 0.00 | 0.00 | 76 | 1015.8 |
| 20260510100503 | 55 | 108 | 3.5 | 9.6 | 0.00 | 0.00 | 0.00 | 76 | 1015.7 |
| 20260510100413 | 55 | 108 | 3.5 | 9.6 | 0.00 | 0.00 | 0.00 | 76 | 1015.7 |
| 20260510100404 | 55 | 111 | 3.5 | 9.6 | 0.00 | 0.00 | 0.00 | 76 | 1015.9 |
| 20260510100303 | 55 | 107 | 3.5 | 9.6 | 0.00 | 0.00 | 0.00 | 77 | 1016.1 |
| 20260510100013 | 55 | 98 | 3.5 | 9.6 | 0.00 | 0.00 | 0.00 | 77 | 1015.8 |
| 20260510100003 | 55 | 136 | 3.5 | 9.6 | 0.00 | 0.00 | 0.00 | 77 | 1015.8 |
| 20260510095904 | 55 | 166 | 3.5 | 9.6 | 0.00 | 0.00 | 0.00 | 76 | 1015.8 |
| 20260510095703 | 55 | 150 | 2.6 | 10.4 | 0.00 | 0.00 | 0.00 | 76 | 1016.0 |
| 20260510095603 | 54 | 130 | 3.5 | 13.0 | 0.00 | 0.00 | 0.00 | 76 | 1015.9 |
| 20260510095504 | 54 | 81 | 3.5 | 13.0 | 0.00 | 0.00 | 0.00 | 76 | 1015.9 |
| 20260510095403 | 54 | 95 | 2.6 | 13.0 | 0.00 | 0.00 | 0.00 | 76 | 1015.8 |
| 20260510095305 | 54 | 59 | 2.6 | 13.0 | 0.00 | 0.00 | 0.00 | 77 | 1015.7 |
| 20260510095204 | 54 | 169 | 3.5 | 13.0 | 0.00 | 0.00 | 0.00 | 77 | 1016.1 |
| 20260510095104 | 54 | 145 | 3.5 | 13.0 | 0.00 | 0.00 | 0.00 | 77 | 1015.8 |
| 20260510095014 | 54 | 145 | 3.5 | 13.0 | 0.00 | 0.00 | 0.00 | 77 | 1015.8 |
| 20260510095004 | 54 | 117 | 3.5 | 13.0 | 0.00 | 0.00 | 0.00 | 77 | 1015.9 |
| 20260510094903 | 54 | 108 | 2.6 | 13.0 | 0.00 | 0.00 | 0.00 | 77 | 1015.9 |
| 20260510094816 | 54 | 108 | 2.6 | 13.0 | 0.00 | 0.00 | 0.00 | 77 | 1015.9 |
| 20260510094703 | 54 | 67 | 2.6 | 13.0 | 0.00 | 0.00 | 0.00 | 77 | 1016.0 |
| 20260510094503 | 54 | 98 | 3.5 | 13.0 | 0.00 | 0.00 | 0.00 | 77 | 1015.9 |
| 20260510094403 | 54 | 74 | 3.5 | 8.7 | 0.00 | 0.00 | 0.00 | 77 | 1015.7 |
| 20260510094304 | 55 | 99 | 2.6 | 8.7 | 0.00 | 0.00 | 0.00 | 77 | 1015.8 |
| 20260510094203 | 55 | 81 | 2.6 | 8.7 | 0.00 | 0.00 | 0.00 | 78 | 1015.8 |
| 20260510094104 | 55 | 80 | 2.6 | 8.7 | 0.00 | 0.00 | 0.00 | 77 | 1015.9 |
| 20260510094003 | 55 | 67 | 2.6 | 8.7 | 0.00 | 0.00 | 0.00 | 77 | 1015.8 |
| 20260510093904 | 55 | 42 | 2.6 | 8.7 | 0.00 | 0.00 | 0.00 | 77 | 1015.9 |
| 20260510093803 | 55 | 23 | 2.6 | 8.7 | 0.00 | 0.00 | 0.00 | 77 | 1015.9 |
| 20260510093716 | 55 | 23 | 2.6 | 8.7 | 0.00 | 0.00 | 0.00 | 77 | 1015.9 |
| 20260510093703 | 55 | 22 | 3.5 | 9.6 | 0.00 | 0.00 | 0.00 | 77 | 1016.0 |
| 20260510093603 | 55 | 347 | 3.5 | 9.6 | 0.00 | 0.00 | 0.00 | 77 | 1015.8 |
| 20260510093404 | 55 | 307 | 3.5 | 9.6 | 0.00 | 0.00 | 0.00 | 77 | 1016.1 |
| 20260510093303 | 55 | 332 | 3.5 | 9.6 | 0.00 | 0.00 | 0.00 | 77 | 1016.1 |
| 20260510093204 | 55 | 329 | 3.5 | 9.6 | 0.00 | 0.00 | 0.00 | 77 | 1016.0 |
| 20260510093103 | 55 | 356 | 3.5 | 9.6 | 0.00 | 0.00 | 0.00 | 77 | 1015.9 |
| 20260510093003 | 55 | 344 | 3.5 | 9.6 | 0.00 | 0.00 | 0.00 | 77 | 1016.0 |
| 20260510092903 | 55 | 10 | 3.5 | 9.6 | 0.00 | 0.00 | 0.00 | 76 | 1016.1 |
| 20260510092803 | 55 | 114 | 3.5 | 9.6 | 0.00 | 0.00 | 0.00 | 76 | 1016.0 |
| 20260510092703 | 55 | 119 | 3.5 | 9.6 | 0.00 | 0.00 | 0.00 | 76 | 1016.1 |
| 20260510092603 | 55 | 68 | 3.5 | 9.6 | 0.00 | 0.00 | 0.00 | 77 | 1016.1 |
| 20260510092503 | 55 | 67 | 3.5 | 7.8 | 0.00 | 0.00 | 0.00 | 76 | 1016.0 |
| 20260510092403 | 55 | 14 | 3.5 | 7.8 | 0.00 | 0.00 | 0.00 | 76 | 1016.1 |
| 20260510092306 | 55 | 55 | 3.5 | 7.8 | 0.00 | 0.00 | 0.00 | 76 | 1016.1 |
| 20260510092203 | 55 | 356 | 3.5 | 7.8 | 0.00 | 0.00 | 0.00 | 76 | 1016.2 |
| 20260510092103 | 55 | 350 | 3.5 | 7.8 | 0.00 | 0.00 | 0.00 | 77 | 1016.3 |
| 20260510092003 | 55 | 7 | 3.5 | 7.8 | 0.00 | 0.00 | 0.00 | 77 | 1016.2 |
| 20260510091903 | 55 | 13 | 2.6 | 7.8 | 0.00 | 0.00 | 0.00 | 78 | 1016.3 |
| 20260510091803 | 55 | 327 | 2.6 | 7.8 | 0.00 | 0.00 | 0.00 | 78 | 1016.3 |
| 20260510091703 | 55 | 346 | 2.6 | 7.8 | 0.00 | 0.00 | 0.00 | 78 | 1016.1 |
| 20260510091603 | 55 | 360 | 2.6 | 7.8 | 0.00 | 0.00 | 0.00 | 78 | 1016.1 |
| 20260510091503 | 55 | 22 | 2.6 | 7.8 | 0.00 | 0.00 | 0.00 | 78 | 1016.0 |
| 20260510091403 | 55 | 32 | 2.6 | 7.8 | 0.00 | 0.00 | 0.00 | 78 | 1016.1 |
| 20260510091303 | 55 | 27 | 2.6 | 7.8 | 0.00 | 0.00 | 0.00 | 79 | 1016.2 |
| 20260510091203 | 55 | 72 | 1.7 | 7.8 | 0.00 | 0.00 | 0.00 | 79 | 1016.1 |
| 20260510091104 | 54 | 78 | 1.7 | 7.8 | 0.00 | 0.00 | 0.00 | 79 | 1016.1 |
| 20260510091003 | 54 | 77 | 1.7 | 7.8 | 0.00 | 0.00 | 0.00 | 79 | 1016.2 |
| 20260510090903 | 54 | 90 | 2.6 | 7.0 | 0.00 | 0.00 | 0.00 | 79 | 1016.1 |
| 20260510090803 | 54 | 68 | 2.6 | 7.0 | 0.00 | 0.00 | 0.00 | 79 | 1016.1 |
| 20260510090703 | 54 | 127 | 2.6 | 7.8 | 0.00 | 0.00 | 0.00 | 79 | 1016.1 |
| 20260510090604 | 54 | 127 | 2.6 | 7.8 | 0.00 | 0.00 | 0.00 | 79 | 1016.0 |
| 20260510090504 | 54 | 158 | 2.6 | 8.7 | 0.00 | 0.00 | 0.00 | 79 | 1016.1 |
| 20260510090403 | 54 | 140 | 2.6 | 8.7 | 0.00 | 0.00 | 0.00 | 79 | 1016.1 |
| 20260510090303 | 54 | 116 | 2.6 | 8.7 | 0.00 | 0.00 | 0.00 | 79 | 1016.1 |
| 20260510090203 | 54 | 105 | 2.6 | 9.6 | 0.00 | 0.00 | 0.00 | 79 | 1016.1 |
| 20260510090004 | 54 | 343 | 2.6 | 12.2 | 0.00 | 0.00 | 0.00 | 79 | 1016.3 |
| 20260510085904 | 54 | 38 | 2.6 | 12.2 | 0.00 | 0.00 | 0.00 | 79 | 1016.2 |
| 20260510085803 | 54 | 108 | 2.6 | 12.2 | 0.00 | 0.00 | 0.00 | 79 | 1016.2 |
| 20260510085714 | 54 | 108 | 2.6 | 12.2 | 0.00 | 0.00 | 0.00 | 79 | 1016.2 |
| 20260510085703 | 53 | 52 | 2.6 | 12.2 | 0.00 | 0.00 | 0.00 | 79 | 1016.1 |
| 20260510085603 | 53 | 38 | 2.6 | 12.2 | 0.00 | 0.00 | 0.00 | 79 | 1016.1 |
| 20260510085403 | 53 | 38 | 3.5 | 12.2 | 0.00 | 0.00 | 0.00 | 80 | 1016.0 |
| 20260510085306 | 53 | 30 | 3.5 | 12.2 | 0.00 | 0.00 | 0.00 | 80 | 1015.9 |
| 20260510085217 | 53 | 30 | 3.5 | 12.2 | 0.00 | 0.00 | 0.00 | 80 | 1015.9 |
| 20260510085203 | 53 | 50 | 3.5 | 12.2 | 0.00 | 0.00 | 0.00 | 80 | 1016.1 |
| 20260510085103 | 53 | 69 | 3.5 | 12.2 | 0.00 | 0.00 | 0.00 | 80 | 1016.2 |
| 20260510084903 | 53 | 37 | 3.5 | 12.2 | 0.00 | 0.00 | 0.00 | 80 | 1015.9 |
| 20260510084817 | 53 | 37 | 3.5 | 12.2 | 0.00 | 0.00 | 0.00 | 80 | 1015.9 |
| 20260510084803 | 53 | 26 | 3.5 | 10.4 | 0.00 | 0.00 | 0.00 | 79 | 1015.9 |
| 20260510084704 | 53 | 31 | 3.5 | 9.6 | 0.00 | 0.00 | 0.00 | 80 | 1016.1 |
| 20260510084503 | 53 | 190 | 2.6 | 9.6 | 0.00 | 0.00 | 0.00 | 80 | 1015.9 |
| 20260510084404 | 53 | 194 | 2.6 | 9.6 | 0.00 | 0.00 | 0.00 | 80 | 1016.0 |
| 20260510084304 | 53 | 190 | 2.6 | 9.6 | 0.00 | 0.00 | 0.00 | 80 | 1016.0 |
| 20260510084203 | 53 | 229 | 2.6 | 9.6 | 0.00 | 0.00 | 0.00 | 80 | 1015.9 |
| 20260510084103 | 53 | 247 | 2.6 | 9.6 | 0.00 | 0.00 | 0.00 | 81 | 1015.9 |
| 20260510084015 | 53 | 247 | 2.6 | 9.6 | 0.00 | 0.00 | 0.00 | 81 | 1015.9 |
| 20260510084003 | 53 | 238 | 2.6 | 9.6 | 0.00 | 0.00 | 0.00 | 81 | 1016.0 |
| 20260510083904 | 53 | 9 | 2.6 | 9.6 | 0.00 | 0.00 | 0.00 | 81 | 1016.2 |
| 20260510083716 | 53 | 257 | 2.6 | 9.6 | 0.00 | 0.00 | 0.00 | 81 | 1015.8 |
| 20260510083706 | 53 | 32 | 2.6 | 9.6 | 0.00 | 0.00 | 0.00 | 81 | 1015.8 |
| 20260510083615 | 53 | 32 | 2.6 | 9.6 | 0.00 | 0.00 | 0.00 | 81 | 1015.8 |
| 20260510083604 | 53 | 37 | 2.6 | 9.6 | 0.00 | 0.00 | 0.00 | 81 | 1016.0 |
| 20260510083513 | 53 | 37 | 2.6 | 9.6 | 0.00 | 0.00 | 0.00 | 81 | 1016.0 |
| 20260510083203 | 53 | 333 | 3.5 | 9.6 | 0.00 | 0.00 | 0.00 | 82 | 1015.8 |
| 20260510083103 | 53 | 329 | 3.5 | 8.7 | 0.00 | 0.00 | 0.00 | 82 | 1016.0 |
| 20260510083016 | 53 | 329 | 3.5 | 8.7 | 0.00 | 0.00 | 0.00 | 82 | 1016.0 |
| 20260510083003 | 53 | 5 | 3.5 | 8.7 | 0.00 | 0.00 | 0.00 | 82 | 1015.9 |
| 20260510082903 | 53 | 346 | 2.6 | 8.7 | 0.00 | 0.00 | 0.00 | 82 | 1015.9 |
| 20260510082717 | 53 | 328 | 2.6 | 8.7 | 0.00 | 0.00 | 0.00 | 82 | 1015.9 |
| 20260510082704 | 53 | 311 | 2.6 | 8.7 | 0.00 | 0.00 | 0.00 | 82 | 1016.0 |
| 20260510082604 | 53 | 242 | 2.6 | 8.7 | 0.00 | 0.00 | 0.00 | 82 | 1016.1 |
| 20260510082403 | 53 | 147 | 2.6 | 8.7 | 0.00 | 0.00 | 0.00 | 82 | 1016.0 |
| 20260510082306 | 53 | 121 | 2.6 | 7.8 | 0.00 | 0.00 | 0.00 | 82 | 1015.9 |
| 20260510082203 | 53 | 96 | 2.6 | 7.8 | 0.00 | 0.00 | 0.00 | 83 | 1015.9 |
| 20260510082104 | 53 | 100 | 2.6 | 7.8 | 0.00 | 0.00 | 0.00 | 83 | 1015.9 |
| 20260510082003 | 53 | 115 | 2.6 | 7.8 | 0.00 | 0.00 | 0.00 | 83 | 1016.2 |
| 20260510081903 | 53 | 97 | 2.6 | 7.8 | 0.00 | 0.00 | 0.00 | 83 | 1016.0 |
| 20260510081804 | 53 | 82 | 2.6 | 7.8 | 0.00 | 0.00 | 0.00 | 83 | 1016.0 |
| 20260510081713 | 53 | 82 | 2.6 | 7.8 | 0.00 | 0.00 | 0.00 | 83 | 1016.0 |
| 20260510081704 | 53 | 79 | 2.6 | 7.8 | 0.00 | 0.00 | 0.00 | 83 | 1016.0 |
| 20260510081603 | 53 | 74 | 2.6 | 7.8 | 0.00 | 0.00 | 0.00 | 83 | 1016.0 |
| 20260510081403 | 53 | 83 | 2.6 | 7.8 | 0.00 | 0.00 | 0.00 | 83 | 1016.2 |
| 20260510081318 | 53 | 83 | 2.6 | 7.8 | 0.00 | 0.00 | 0.00 | 83 | 1016.2 |
| 20260510081303 | 53 | 73 | 2.6 | 7.8 | 0.00 | 0.00 | 0.00 | 83 | 1016.0 |
| 20260510081203 | 53 | 80 | 2.6 | 7.8 | 0.00 | 0.00 | 0.00 | 83 | 1016.0 |
| 20260510081013 | 53 | 62 | 2.6 | 7.8 | 0.00 | 0.00 | 0.00 | 83 | 1016.0 |
| 20260510081003 | 53 | 52 | 2.6 | 6.1 | 0.00 | 0.00 | 0.00 | 83 | 1016.0 |
| 20260510080904 | 53 | 55 | 2.6 | 6.1 | 0.00 | 0.00 | 0.00 | 83 | 1016.1 |
| 20260510080708 | 53 | 64 | 2.6 | 6.1 | 0.00 | 0.00 | 0.00 | 83 | 1016.2 |
| 20260510080603 | 53 | 24 | 2.6 | 6.1 | 0.00 | 0.00 | 0.00 | 83 | 1016.2 |
| 20260510080503 | 53 | 41 | 2.6 | 6.1 | 0.00 | 0.00 | 0.00 | 83 | 1016.1 |
| 20260510080403 | 53 | 30 | 2.6 | 6.1 | 0.00 | 0.00 | 0.00 | 83 | 1016.0 |
| 20260510080304 | 53 | 35 | 2.6 | 6.1 | 0.00 | 0.00 | 0.00 | 83 | 1016.1 |
| 20260510080204 | 53 | 51 | 1.7 | 7.0 | 0.00 | 0.00 | 0.00 | 83 | 1016.2 |
| 20260510080104 | 53 | 112 | 1.7 | 7.0 | 0.00 | 0.00 | 0.00 | 83 | 1016.1 |
| 20260510080003 | 53 | 104 | 1.7 | 7.0 | 0.00 | 0.00 | 0.00 | 83 | 1016.2 |
| 20260510075904 | 53 | 112 | 1.7 | 7.0 | 0.00 | 0.00 | 0.00 | 83 | 1016.2 |
| 20260510075804 | 53 | 101 | 1.7 | 7.0 | 0.00 | 0.00 | 0.00 | 83 | 1016.1 |
| 20260510075703 | 53 | 104 | 1.7 | 7.0 | 0.00 | 0.00 | 0.00 | 83 | 1016.2 |
| 20260510075603 | 53 | 101 | 1.7 | 7.0 | 0.00 | 0.00 | 0.00 | 83 | 1016.1 |
| 20260510075504 | 53 | 94 | 1.7 | 7.0 | 0.00 | 0.00 | 0.00 | 83 | 1016.0 |
| 20260510075403 | 53 | 101 | 1.7 | 7.0 | 0.00 | 0.00 | 0.00 | 83 | 1016.1 |
| 20260510075306 | 53 | 78 | 1.7 | 7.0 | 0.00 | 0.00 | 0.00 | 83 | 1016.4 |
| 20260510075203 | 53 | 57 | 2.6 | 7.0 | 0.00 | 0.00 | 0.00 | 83 | 1016.1 |
| 20260510075104 | 53 | 42 | 2.6 | 6.1 | 0.00 | 0.00 | 0.00 | 83 | 1016.0 |
| 20260510075003 | 53 | 48 | 1.7 | 6.1 | 0.00 | 0.00 | 0.00 | 83 | 1016.1 |
| 20260510074903 | 53 | 26 | 1.7 | 6.1 | 0.00 | 0.00 | 0.00 | 83 | 1016.2 |
| 20260510074803 | 53 | 37 | 2.6 | 6.1 | 0.00 | 0.00 | 0.00 | 83 | 1016.1 |
| 20260510074703 | 53 | 41 | 2.6 | 6.1 | 0.00 | 0.00 | 0.00 | 83 | 1016.1 |
| 20260510074604 | 53 | 24 | 2.6 | 7.0 | 0.00 | 0.00 | 0.00 | 83 | 1016.2 |
| 20260510074503 | 53 | 318 | 2.6 | 7.0 | 0.00 | 0.00 | 0.00 | 83 | 1016.3 |
| 20260510074403 | 53 | 115 | 2.6 | 8.7 | 0.00 | 0.00 | 0.00 | 83 | 1016.2 |
| 20260510074315 | 53 | 115 | 2.6 | 8.7 | 0.00 | 0.00 | 0.00 | 83 | 1016.2 |
| 20260510074303 | 53 | 112 | 2.6 | 10.4 | 0.00 | 0.00 | 0.00 | 83 | 1016.2 |
| 20260510074204 | 53 | 135 | 2.6 | 10.4 | 0.00 | 0.00 | 0.00 | 83 | 1016.1 |
| 20260510074117 | 53 | 135 | 2.6 | 10.4 | 0.00 | 0.00 | 0.00 | 83 | 1016.1 |
| 20260510074004 | 53 | 161 | 2.6 | 10.4 | 0.00 | 0.00 | 0.00 | 83 | 1016.1 |
| 20260510073803 | 53 | 177 | 2.6 | 10.4 | 0.00 | 0.00 | 0.00 | 83 | 1016.1 |
| 20260510073704 | 53 | 171 | 2.6 | 10.4 | 0.00 | 0.00 | 0.00 | 83 | 1016.1 |
| 20260510073603 | 53 | 172 | 2.6 | 10.4 | 0.00 | 0.00 | 0.00 | 83 | 1016.2 |
| 20260510073504 | 53 | 180 | 2.6 | 10.4 | 0.00 | 0.00 | 0.00 | 83 | 1016.2 |
| 20260510073403 | 53 | 171 | 2.6 | 10.4 | 0.00 | 0.00 | 0.00 | 83 | 1016.1 |
| 20260510073303 | 53 | 175 | 2.6 | 10.4 | 0.00 | 0.00 | 0.00 | 83 | 1016.2 |
| 20260510073203 | 53 | 333 | 2.6 | 10.4 | 0.00 | 0.00 | 0.00 | 83 | 1016.1 |
| 20260510073103 | 53 | 40 | 1.7 | 8.7 | 0.00 | 0.00 | 0.00 | 83 | 1016.2 |
| 20260510073004 | 53 | 13 | 2.6 | 8.7 | 0.00 | 0.00 | 0.00 | 83 | 1016.1 |
| 20260510072916 | 53 | 13 | 2.6 | 8.7 | 0.00 | 0.00 | 0.00 | 83 | 1016.1 |
| 20260510072904 | 53 | 357 | 1.7 | 8.7 | 0.00 | 0.00 | 0.00 | 83 | 1016.1 |
| 20260510072803 | 53 | 42 | 1.7 | 8.7 | 0.00 | 0.00 | 0.00 | 83 | 1016.2 |
| 20260510072616 | 53 | 66 | 1.7 | 8.7 | 0.00 | 0.00 | 0.00 | 83 | 1016.1 |
| 20260510072603 | 53 | 72 | 1.7 | 8.7 | 0.00 | 0.00 | 0.00 | 83 | 1016.2 |
| 20260510072504 | 53 | 68 | 2.6 | 8.7 | 0.00 | 0.00 | 0.00 | 83 | 1016.2 |
| 20260510072305 | 53 | 96 | 1.7 | 8.7 | 0.00 | 0.00 | 0.00 | 83 | 1016.1 |
| 20260510072203 | 53 | 125 | 1.7 | 7.0 | 0.00 | 0.00 | 0.00 | 83 | 1016.3 |
| 20260510072104 | 53 | 124 | 1.7 | 7.0 | 0.00 | 0.00 | 0.00 | 83 | 1016.1 |
| 20260510072003 | 53 | 127 | 1.7 | 7.0 | 0.00 | 0.00 | 0.00 | 83 | 1016.4 |
| 20260510071908 | 53 | 127 | 1.7 | 7.0 | 0.00 | 0.00 | 0.00 | 83 | 1016.4 |
| 20260510071808 | 53 | 116 | 1.7 | 7.0 | 0.00 | 0.00 | 0.00 | 83 | 1016.2 |
| 20260510071703 | 53 | 118 | 1.7 | 6.1 | 0.00 | 0.00 | 0.00 | 83 | 1016.3 |
| 20260510071505 | 53 | 119 | 1.7 | 6.1 | 0.00 | 0.00 | 0.00 | 84 | 1016.3 |
| 20260510071415 | 53 | 119 | 1.7 | 6.1 | 0.00 | 0.00 | 0.00 | 84 | 1016.3 |
| 20260510071404 | 53 | 110 | 1.7 | 6.1 | 0.00 | 0.00 | 0.00 | 84 | 1016.2 |
| 20260510071303 | 53 | 92 | 1.7 | 6.1 | 0.00 | 0.00 | 0.00 | 84 | 1016.2 |
| 20260510071103 | 53 | 88 | 1.7 | 6.1 | 0.00 | 0.00 | 0.00 | 84 | 1016.1 |
| 20260510071004 | 53 | 93 | 1.7 | 7.0 | 0.00 | 0.00 | 0.00 | 84 | 1016.3 |
| 20260510070904 | 53 | 93 | 1.7 | 7.0 | 0.00 | 0.00 | 0.00 | 84 | 1016.3 |
| 20260510070803 | 53 | 83 | 1.7 | 7.0 | 0.00 | 0.00 | 0.00 | 84 | 1016.2 |
| 20260510070704 | 53 | 95 | 1.7 | 7.0 | 0.00 | 0.00 | 0.00 | 84 | 1016.2 |
| 20260510070603 | 53 | 80 | 1.7 | 7.0 | 0.00 | 0.00 | 0.00 | 84 | 1016.2 |
| 20260510070504 | 53 | 99 | 1.7 | 7.8 | 0.00 | 0.00 | 0.00 | 84 | 1016.2 |
| 20260510070403 | 53 | 95 | 1.7 | 7.8 | 0.00 | 0.00 | 0.00 | 84 | 1016.2 |
| 20260510070304 | 53 | 86 | 2.6 | 7.8 | 0.00 | 0.00 | 0.00 | 84 | 1016.3 |
| 20260510070218 | 53 | 86 | 2.6 | 7.8 | 0.00 | 0.00 | 0.00 | 84 | 1016.3 |
| 20260510070203 | 53 | 75 | 2.6 | 7.8 | 0.00 | 0.00 | 0.00 | 84 | 1016.3 |
| 20260510070103 | 53 | 80 | 2.6 | 7.8 | 0.00 | 0.00 | 0.00 | 84 | 1016.5 |
| 20260510065904 | 53 | 99 | 1.7 | 8.7 | 0.00 | 0.00 | 0.00 | 84 | 1016.4 |
| 20260510065804 | 53 | 102 | 2.6 | 8.7 | 0.00 | 0.00 | 0.00 | 84 | 1016.3 |
| 20260510065716 | 53 | 102 | 2.6 | 8.7 | 0.00 | 0.00 | 0.00 | 84 | 1016.3 |
| 20260510065704 | 53 | 15 | 2.6 | 8.7 | 0.00 | 0.00 | 0.00 | 84 | 1016.2 |
| 20260510065604 | 53 | 278 | 2.6 | 8.7 | 0.00 | 0.00 | 0.00 | 84 | 1016.3 |
| 20260510065404 | 53 | 320 | 2.6 | 8.7 | 0.00 | 0.00 | 0.00 | 84 | 1016.1 |
| 20260510065306 | 53 | 301 | 1.7 | 8.7 | 0.00 | 0.00 | 0.00 | 84 | 1016.2 |
| 20260510065214 | 53 | 301 | 1.7 | 8.7 | 0.00 | 0.00 | 0.00 | 84 | 1016.2 |
| 20260510065203 | 53 | 311 | 1.7 | 8.7 | 0.00 | 0.00 | 0.00 | 84 | 1016.3 |
| 20260510065104 | 53 | 310 | 1.7 | 8.7 | 0.00 | 0.00 | 0.00 | 84 | 1016.1 |
| 20260510065016 | 53 | 310 | 1.7 | 8.7 | 0.00 | 0.00 | 0.00 | 84 | 1016.1 |
| 20260510064914 | 53 | 331 | 1.7 | 8.7 | 0.00 | 0.00 | 0.00 | 84 | 1016.3 |
| 20260510064903 | 53 | 349 | 2.6 | 8.7 | 0.00 | 0.00 | 0.00 | 83 | 1016.1 |
| 20260510064813 | 53 | 349 | 2.6 | 8.7 | 0.00 | 0.00 | 0.00 | 83 | 1016.1 |
| 20260510064504 | 53 | 9 | 1.7 | 6.1 | 0.00 | 0.00 | 0.00 | 83 | 1016.4 |
| 20260510064403 | 53 | 350 | 1.7 | 6.1 | 0.00 | 0.00 | 0.00 | 83 | 1016.2 |
| 20260510064303 | 53 | 346 | 2.6 | 6.1 | 0.00 | 0.00 | 0.00 | 83 | 1016.3 |
| 20260510064203 | 53 | 7 | 1.7 | 6.1 | 0.00 | 0.00 | 0.00 | 84 | 1016.3 |
| 20260510064103 | 53 | 13 | 1.7 | 6.1 | 0.00 | 0.00 | 0.00 | 84 | 1016.1 |
| 20260510064003 | 53 | 29 | 1.7 | 6.1 | 0.00 | 0.00 | 0.00 | 84 | 1016.1 |
| 20260510063904 | 53 | 63 | 1.7 | 6.1 | 0.00 | 0.00 | 0.00 | 84 | 1016.0 |
| 20260510063814 | 53 | 63 | 1.7 | 6.1 | 0.00 | 0.00 | 0.00 | 84 | 1016.0 |
| 20260510063803 | 53 | 101 | 1.7 | 6.1 | 0.00 | 0.00 | 0.00 | 84 | 1016.2 |
| 20260510063703 | 53 | 123 | 1.7 | 6.1 | 0.00 | 0.00 | 0.00 | 84 | 1016.2 |
| 20260510063503 | 53 | 115 | 1.7 | 7.0 | 0.00 | 0.00 | 0.00 | 84 | 1016.2 |
| 20260510063404 | 53 | 128 | 0.9 | 7.0 | 0.00 | 0.00 | 0.00 | 84 | 1016.2 |
| 20260510063303 | 53 | 126 | 1.7 | 7.0 | 0.00 | 0.00 | 0.00 | 84 | 1016.1 |
| 20260510063203 | 53 | 124 | 1.7 | 7.0 | 0.00 | 0.00 | 0.00 | 84 | 1016.2 |
| 20260510063104 | 53 | 109 | 1.7 | 7.0 | 0.00 | 0.00 | 0.00 | 84 | 1016.1 |
| 20260510063004 | 53 | 125 | 1.7 | 7.0 | 0.00 | 0.00 | 0.00 | 84 | 1016.2 |
| 20260510062903 | 53 | 162 | 1.7 | 7.0 | 0.00 | 0.00 | 0.00 | 84 | 1016.2 |
| 20260510062804 | 53 | 221 | 1.7 | 7.0 | 0.00 | 0.00 | 0.00 | 84 | 1016.0 |
| 20260510062703 | 53 | 242 | 1.7 | 7.0 | 0.00 | 0.00 | 0.00 | 84 | 1016.1 |
| 20260510062603 | 53 | 266 | 1.7 | 7.0 | 0.00 | 0.00 | 0.00 | 84 | 1016.1 |
| 20260510062503 | 53 | 238 | 1.7 | 7.0 | 0.00 | 0.00 | 0.00 | 84 | 1016.2 |
| 20260510062403 | 52 | 175 | 2.6 | 7.0 | 0.00 | 0.00 | 0.00 | 84 | 1016.1 |
| 20260510062306 | 52 | 144 | 2.6 | 7.0 | 0.00 | 0.00 | 0.00 | 84 | 1016.1 |
| 20260510062204 | 52 | 80 | 1.7 | 8.7 | 0.00 | 0.00 | 0.00 | 84 | 1016.1 |
| 20260510062103 | 52 | 182 | 2.6 | 8.7 | 0.00 | 0.00 | 0.00 | 84 | 1016.3 |
| 20260510062004 | 52 | 162 | 2.6 | 8.7 | 0.00 | 0.00 | 0.00 | 84 | 1015.9 |
| 20260510061903 | 52 | 152 | 2.6 | 8.7 | 0.00 | 0.00 | 0.00 | 84 | 1016.0 |
| 20260510061804 | 52 | 149 | 2.6 | 8.7 | 0.00 | 0.00 | 0.00 | 84 | 1016.2 |
| 20260510061714 | 52 | 149 | 2.6 | 8.7 | 0.00 | 0.00 | 0.00 | 84 | 1016.2 |
| 20260510061703 | 52 | 113 | 2.6 | 8.7 | 0.00 | 0.00 | 0.00 | 84 | 1016.2 |
| 20260510061603 | 52 | 98 | 2.6 | 8.7 | 0.00 | 0.00 | 0.00 | 84 | 1016.0 |
| 20260510061404 | 52 | 59 | 2.6 | 8.7 | 0.00 | 0.00 | 0.00 | 84 | 1016.2 |
| 20260510061314 | 52 | 59 | 2.6 | 8.7 | 0.00 | 0.00 | 0.00 | 84 | 1016.2 |
| 20260510061303 | 52 | 43 | 2.6 | 8.7 | 0.00 | 0.00 | 0.00 | 84 | 1016.2 |
| 20260510061204 | 52 | 43 | 2.6 | 8.7 | 0.00 | 0.00 | 0.00 | 85 | 1016.3 |
| 20260510061003 | 52 | 28 | 2.6 | 7.8 | 0.00 | 0.00 | 0.00 | 85 | 1016.2 |
| 20260510060904 | 52 | 31 | 2.6 | 7.8 | 0.00 | 0.00 | 0.00 | 85 | 1016.3 |
| 20260510060803 | 52 | 43 | 2.6 | 7.8 | 0.00 | 0.00 | 0.00 | 85 | 1016.3 |
| 20260510060703 | 52 | 45 | 2.6 | 7.8 | 0.00 | 0.00 | 0.00 | 85 | 1016.0 |
| 20260510060614 | 52 | 45 | 2.6 | 7.8 | 0.00 | 0.00 | 0.00 | 85 | 1016.0 |
| 20260510060604 | 52 | 46 | 2.6 | 7.8 | 0.00 | 0.00 | 0.00 | 85 | 1016.0 |
| 20260510060503 | 52 | 45 | 2.6 | 7.8 | 0.00 | 0.00 | 0.00 | 85 | 1016.0 |
| 20260510060303 | 52 | 53 | 2.6 | 7.8 | 0.00 | 0.00 | 0.00 | 85 | 1016.0 |
| 20260510060203 | 52 | 59 | 2.6 | 7.8 | 0.00 | 0.00 | 0.00 | 85 | 1016.1 |
| 20260510060003 | 52 | 280 | 2.6 | 7.0 | 0.00 | 0.00 | 0.00 | 85 | 1016.1 |
| 20260510055904 | 52 | 198 | 2.6 | 7.0 | 0.00 | 0.00 | 0.00 | 85 | 1016.1 |
| 20260510055813 | 52 | 198 | 2.6 | 7.0 | 0.00 | 0.00 | 0.00 | 85 | 1016.1 |
| 20260510055803 | 52 | 243 | 2.6 | 7.0 | 0.00 | 0.00 | 0.00 | 86 | 1015.9 |
| 20260510055716 | 52 | 243 | 2.6 | 7.0 | 0.00 | 0.00 | 0.00 | 86 | 1015.9 |
| 20260510055703 | 52 | 242 | 2.6 | 7.0 | 0.00 | 0.00 | 0.00 | 86 | 1016.1 |
| 20260510055513 | 52 | 201 | 2.6 | 7.0 | 0.00 | 0.00 | 0.00 | 85 | 1016.0 |
| 20260510055417 | 52 | 234 | 2.6 | 7.0 | 0.00 | 0.00 | 0.00 | 85 | 1016.1 |
| 20260510055403 | 52 | 248 | 2.6 | 7.0 | 0.00 | 0.00 | 0.00 | 85 | 1016.1 |
| 20260510055103 | 52 | 251 | 2.6 | 7.8 | 0.00 | 0.00 | 0.00 | 86 | 1016.2 |
| 20260510055003 | 52 | 253 | 2.6 | 7.8 | 0.00 | 0.00 | 0.00 | 86 | 1016.0 |
| 20260510054903 | 52 | 270 | 2.6 | 7.8 | 0.00 | 0.00 | 0.00 | 86 | 1016.1 |
| 20260510054813 | 52 | 270 | 2.6 | 7.8 | 0.00 | 0.00 | 0.00 | 86 | 1016.1 |
| 20260510054803 | 52 | 265 | 2.6 | 7.8 | 0.00 | 0.00 | 0.00 | 86 | 1016.1 |
| 20260510054703 | 52 | 268 | 2.6 | 7.8 | 0.00 | 0.00 | 0.00 | 86 | 1016.3 |
| 20260510054503 | 52 | 221 | 2.6 | 7.8 | 0.00 | 0.00 | 0.00 | 86 | 1016.2 |
| 20260510054413 | 52 | 221 | 2.6 | 7.8 | 0.00 | 0.00 | 0.00 | 86 | 1016.2 |
| 20260510054403 | 52 | 208 | 2.6 | 7.8 | 0.00 | 0.00 | 0.00 | 86 | 1016.2 |
| 20260510054303 | 52 | 221 | 2.6 | 7.8 | 0.00 | 0.00 | 0.00 | 86 | 1016.1 |
| 20260510054114 | 52 | 193 | 2.6 | 7.8 | 0.00 | 0.00 | 0.00 | 86 | 1016.0 |
| 20260510054103 | 52 | 188 | 2.6 | 7.8 | 0.00 | 0.00 | 0.00 | 87 | 1016.2 |
| 20260510054012 | 52 | 188 | 2.6 | 7.8 | 0.00 | 0.00 | 0.00 | 87 | 1016.2 |
| 20260510054003 | 52 | 120 | 2.6 | 7.8 | 0.00 | 0.00 | 0.00 | 87 | 1016.2 |
| 20260510053916 | 52 | 120 | 2.6 | 7.8 | 0.00 | 0.00 | 0.00 | 87 | 1016.2 |
| 20260510053617 | 52 | 182 | 1.7 | 7.8 | 0.00 | 0.00 | 0.00 | 87 | 1016.2 |
| 20260510053603 | 52 | 268 | 1.7 | 7.8 | 0.00 | 0.00 | 0.00 | 87 | 1016.1 |
| 20260510053504 | 52 | 296 | 1.7 | 7.8 | 0.00 | 0.00 | 0.00 | 87 | 1016.1 |
| 20260510053303 | 52 | 189 | 1.7 | 10.4 | 0.00 | 0.00 | 0.00 | 87 | 1016.2 |
| 20260510053203 | 52 | 252 | 1.7 | 10.4 | 0.00 | 0.00 | 0.00 | 87 | 1016.4 |
| 20260510053115 | 52 | 252 | 1.7 | 10.4 | 0.00 | 0.00 | 0.00 | 87 | 1016.4 |
| 20260510053103 | 52 | 165 | 1.7 | 10.4 | 0.00 | 0.00 | 0.00 | 87 | 1016.2 |
| 20260510053003 | 52 | 269 | 1.7 | 10.4 | 0.00 | 0.00 | 0.00 | 87 | 1016.3 |
| 20260510052803 | 52 | 249 | 1.7 | 10.4 | 0.00 | 0.00 | 0.00 | 87 | 1016.2 |
| 20260510052703 | 52 | 228 | 2.6 | 10.4 | 0.00 | 0.00 | 0.00 | 87 | 1016.4 |
| 20260510052604 | 51 | 226 | 2.6 | 10.4 | 0.00 | 0.00 | 0.00 | 87 | 1016.1 |
| 20260510052503 | 51 | 240 | 2.6 | 10.4 | 0.00 | 0.00 | 0.00 | 87 | 1016.3 |
| 20260510052403 | 51 | 280 | 2.6 | 10.4 | 0.00 | 0.00 | 0.00 | 87 | 1016.3 |
| 20260510052306 | 51 | 305 | 1.7 | 8.7 | 0.00 | 0.00 | 0.00 | 87 | 1016.1 |
| 20260510052203 | 51 | 310 | 2.6 | 7.0 | 0.00 | 0.00 | 0.00 | 87 | 1016.2 |
| 20260510052103 | 51 | 314 | 1.7 | 7.0 | 0.00 | 0.00 | 0.00 | 87 | 1016.1 |
| 20260510052003 | 51 | 341 | 2.6 | 7.0 | 0.00 | 0.00 | 0.00 | 87 | 1016.2 |
| 20260510051903 | 51 | 344 | 1.7 | 7.0 | 0.00 | 0.00 | 0.00 | 87 | 1016.3 |
| 20260510051803 | 51 | 46 | 1.7 | 8.7 | 0.00 | 0.00 | 0.00 | 87 | 1016.2 |
| 20260510051703 | 51 | 340 | 2.6 | 8.7 | 0.00 | 0.00 | 0.00 | 87 | 1016.2 |
| 20260510051603 | 51 | 27 | 1.7 | 8.7 | 0.00 | 0.00 | 0.00 | 87 | 1016.1 |
| 20260510051504 | 51 | 29 | 1.7 | 8.7 | 0.00 | 0.00 | 0.00 | 87 | 1016.3 |
| 20260510051403 | 51 | 26 | 1.7 | 8.7 | 0.00 | 0.00 | 0.00 | 87 | 1016.2 |
| 20260510051303 | 51 | 35 | 1.7 | 8.7 | 0.00 | 0.00 | 0.00 | 87 | 1016.4 |
| 20260510051204 | 51 | 38 | 1.7 | 8.7 | 0.00 | 0.00 | 0.00 | 87 | 1016.2 |
| 20260510051103 | 51 | 12 | 1.7 | 9.6 | 0.00 | 0.00 | 0.00 | 87 | 1016.2 |
| 20260510051015 | 51 | 12 | 1.7 | 9.6 | 0.00 | 0.00 | 0.00 | 87 | 1016.2 |
| 20260510051003 | 51 | 23 | 1.7 | 9.6 | 0.00 | 0.00 | 0.00 | 87 | 1016.3 |
| 20260510050903 | 51 | 28 | 1.7 | 9.6 | 0.00 | 0.00 | 0.00 | 87 | 1016.4 |
| 20260510050817 | 51 | 28 | 1.7 | 9.6 | 0.00 | 0.00 | 0.00 | 87 | 1016.4 |
| 20260510050703 | 51 | 31 | 2.6 | 13.9 | 0.00 | 0.00 | 0.00 | 87 | 1016.1 |
| 20260510050503 | 51 | 23 | 2.6 | 13.9 | 0.00 | 0.00 | 0.00 | 87 | 1016.3 |
| 20260510050404 | 51 | 37 | 2.6 | 13.9 | 0.00 | 0.00 | 0.00 | 87 | 1016.3 |
| 20260510050315 | 51 | 37 | 2.6 | 13.9 | 0.00 | 0.00 | 0.00 | 87 | 1016.3 |
| 20260510050303 | 51 | 35 | 2.6 | 13.9 | 0.00 | 0.00 | 0.00 | 87 | 1016.3 |
| 20260510050203 | 51 | 17 | 2.6 | 13.9 | 0.00 | 0.00 | 0.00 | 87 | 1016.2 |
| 20260510050003 | 51 | 18 | 2.6 | 13.9 | 0.00 | 0.00 | 0.00 | 87 | 1016.4 |
| 20260510045903 | 51 | 9 | 2.6 | 13.9 | 0.00 | 0.00 | 0.00 | 87 | 1016.2 |
| 20260510045803 | 51 | 32 | 2.6 | 13.9 | 0.00 | 0.00 | 0.00 | 87 | 1016.1 |
| 20260510045704 | 51 | 30 | 2.6 | 13.9 | 0.00 | 0.00 | 0.00 | 87 | 1016.3 |
| 20260510045603 | 51 | 16 | 3.5 | 13.9 | 0.00 | 0.00 | 0.00 | 87 | 1016.2 |
| 20260510045504 | 51 | 19 | 3.5 | 8.7 | 0.00 | 0.00 | 0.00 | 87 | 1016.3 |
| 20260510045404 | 51 | 13 | 3.5 | 8.7 | 0.00 | 0.00 | 0.00 | 87 | 1016.2 |
| 20260510045316 | 51 | 13 | 3.5 | 8.7 | 0.00 | 0.00 | 0.00 | 87 | 1016.2 |
| 20260510045306 | 51 | 18 | 3.5 | 8.7 | 0.00 | 0.00 | 0.00 | 87 | 1016.3 |
| 20260510045204 | 52 | 21 | 3.5 | 8.7 | 0.00 | 0.00 | 0.00 | 87 | 1016.0 |
| 20260510045004 | 52 | 29 | 3.5 | 8.7 | 0.00 | 0.00 | 0.00 | 87 | 1016.3 |
| 20260510044903 | 52 | 36 | 2.6 | 8.7 | 0.00 | 0.00 | 0.00 | 87 | 1016.2 |
| 20260510044804 | 52 | 23 | 2.6 | 8.7 | 0.00 | 0.00 | 0.00 | 87 | 1016.3 |
| 20260510044704 | 52 | 13 | 2.6 | 8.7 | 0.00 | 0.00 | 0.00 | 87 | 1016.2 |
| 20260510044603 | 52 | 9 | 2.6 | 8.7 | 0.00 | 0.00 | 0.00 | 87 | 1016.3 |
| 20260510044515 | 52 | 9 | 2.6 | 8.7 | 0.00 | 0.00 | 0.00 | 87 | 1016.3 |
| 20260510044504 | 52 | 14 | 2.6 | 8.7 | 0.00 | 0.00 | 0.00 | 87 | 1016.2 |
| 20260510044414 | 52 | 14 | 2.6 | 8.7 | 0.00 | 0.00 | 0.00 | 87 | 1016.2 |
| 20260510044403 | 52 | 22 | 2.6 | 8.7 | 0.00 | 0.00 | 0.00 | 87 | 1016.2 |
| 20260510044114 | 52 | 48 | 2.6 | 8.7 | 0.00 | 0.00 | 0.00 | 88 | 1016.3 |
| 20260510044103 | 52 | 85 | 2.6 | 8.7 | 0.00 | 0.00 | 0.00 | 88 | 1016.1 |
| 20260510044003 | 52 | 95 | 2.6 | 8.7 | 0.00 | 0.00 | 0.00 | 88 | 1016.1 |
| 20260510043804 | 52 | 66 | 2.6 | 8.7 | 0.00 | 0.00 | 0.00 | 88 | 1016.4 |
| 20260510043714 | 52 | 66 | 2.6 | 8.7 | 0.00 | 0.00 | 0.00 | 88 | 1016.4 |
| 20260510043704 | 52 | 66 | 2.6 | 8.7 | 0.00 | 0.00 | 0.00 | 88 | 1016.2 |
| 20260510043603 | 52 | 101 | 2.6 | 8.7 | 0.00 | 0.00 | 0.00 | 88 | 1016.0 |
| 20260510043403 | 52 | 83 | 2.6 | 8.7 | 0.00 | 0.00 | 0.00 | 88 | 1016.4 |
| 20260510043303 | 52 | 45 | 2.6 | 8.7 | 0.00 | 0.00 | 0.00 | 88 | 1016.2 |
| 20260510043204 | 52 | 60 | 2.6 | 8.7 | 0.00 | 0.00 | 0.00 | 88 | 1016.1 |
| 20260510043103 | 52 | 23 | 2.6 | 8.7 | 0.00 | 0.00 | 0.00 | 88 | 1016.3 |
| 20260510043004 | 52 | 325 | 2.6 | 8.7 | 0.00 | 0.00 | 0.00 | 88 | 1016.2 |
| 20260510042904 | 52 | 234 | 2.6 | 10.4 | 0.00 | 0.00 | 0.00 | 88 | 1016.1 |
| 20260510042803 | 52 | 212 | 2.6 | 10.4 | 0.00 | 0.00 | 0.00 | 88 | 1016.2 |
| 20260510042703 | 52 | 244 | 2.6 | 10.4 | 0.00 | 0.00 | 0.00 | 88 | 1016.1 |
| 20260510042603 | 52 | 273 | 2.6 | 10.4 | 0.00 | 0.00 | 0.00 | 88 | 1016.3 |
| 20260510042503 | 52 | 271 | 2.6 | 10.4 | 0.00 | 0.00 | 0.00 | 88 | 1016.2 |
| 20260510042404 | 52 | 261 | 2.6 | 10.4 | 0.00 | 0.00 | 0.00 | 88 | 1016.1 |
| 20260510042305 | 52 | 258 | 2.6 | 10.4 | 0.00 | 0.00 | 0.00 | 88 | 1016.3 |
| 20260510042203 | 52 | 263 | 2.6 | 10.4 | 0.00 | 0.00 | 0.00 | 88 | 1016.1 |
| 20260510042103 | 52 | 257 | 2.6 | 10.4 | 0.00 | 0.00 | 0.00 | 88 | 1016.1 |
| 20260510042003 | 52 | 283 | 2.6 | 10.4 | 0.00 | 0.00 | 0.00 | 87 | 1016.0 |
| 20260510041903 | 52 | 300 | 2.6 | 10.4 | 0.00 | 0.00 | 0.00 | 87 | 1016.1 |
| 20260510041804 | 52 | 326 | 2.6 | 10.4 | 0.00 | 0.00 | 0.00 | 87 | 1016.1 |
| 20260510041703 | 52 | 333 | 2.6 | 9.6 | 0.00 | 0.00 | 0.00 | 87 | 1015.9 |
| 20260510041603 | 52 | 330 | 2.6 | 9.6 | 0.00 | 0.00 | 0.00 | 87 | 1016.1 |
| 20260510041503 | 52 | 344 | 2.6 | 9.6 | 0.00 | 0.00 | 0.00 | 87 | 1016.1 |
| 20260510041416 | 52 | 344 | 2.6 | 9.6 | 0.00 | 0.00 | 0.00 | 87 | 1016.1 |
| 20260510041404 | 52 | 350 | 2.6 | 9.6 | 0.00 | 0.00 | 0.00 | 87 | 1016.2 |
| 20260510041304 | 52 | 347 | 2.6 | 9.6 | 0.00 | 0.00 | 0.00 | 87 | 1016.3 |
| 20260510041103 | 52 | 337 | 2.6 | 9.6 | 0.00 | 0.00 | 0.00 | 87 | 1016.4 |
| 20260510041003 | 52 | 330 | 2.6 | 9.6 | 0.00 | 0.00 | 0.00 | 87 | 1016.1 |
| 20260510040904 | 52 | 348 | 2.6 | 9.6 | 0.00 | 0.00 | 0.00 | 87 | 1016.1 |
| 20260510040803 | 52 | 332 | 2.6 | 9.6 | 0.00 | 0.00 | 0.00 | 87 | 1016.0 |
| 20260510040704 | 52 | 334 | 2.6 | 9.6 | 0.00 | 0.00 | 0.00 | 87 | 1016.1 |
| 20260510040603 | 52 | 350 | 2.6 | 7.8 | 0.00 | 0.00 | 0.00 | 87 | 1016.3 |
| 20260510040503 | 52 | 347 | 2.6 | 7.8 | 0.00 | 0.00 | 0.00 | 87 | 1016.0 |
| 20260510040412 | 52 | 347 | 2.6 | 7.8 | 0.00 | 0.00 | 0.00 | 87 | 1016.0 |
| 20260510040403 | 52 | 335 | 2.6 | 7.8 | 0.00 | 0.00 | 0.00 | 87 | 1015.9 |
| 20260510040304 | 52 | 345 | 2.6 | 7.8 | 0.00 | 0.00 | 0.00 | 87 | 1016.1 |
| 20260510040003 | 52 | 15 | 2.6 | 7.8 | 0.00 | 0.00 | 0.00 | 87 | 1015.9 |
| 20260510035915 | 52 | 15 | 2.6 | 7.8 | 0.00 | 0.00 | 0.00 | 87 | 1015.9 |
| 20260510035903 | 52 | 339 | 2.6 | 7.8 | 0.00 | 0.00 | 0.00 | 87 | 1016.1 |
| 20260510035814 | 52 | 339 | 2.6 | 7.8 | 0.00 | 0.00 | 0.00 | 87 | 1016.1 |
| 20260510035803 | 52 | 16 | 2.6 | 7.8 | 0.00 | 0.00 | 0.00 | 87 | 1015.9 |
| 20260510035515 | 52 | 261 | 2.6 | 7.8 | 0.00 | 0.00 | 0.00 | 87 | 1016.1 |
| 20260510035504 | 52 | 343 | 2.6 | 7.0 | 0.00 | 0.00 | 0.00 | 87 | 1016.0 |
| 20260510035403 | 52 | 2 | 2.6 | 7.0 | 0.00 | 0.00 | 0.00 | 87 | 1016.0 |
| 20260510035203 | 52 | 70 | 2.6 | 6.1 | 0.00 | 0.00 | 0.00 | 87 | 1016.0 |
| 20260510035103 | 52 | 59 | 2.6 | 6.1 | 0.00 | 0.00 | 0.00 | 87 | 1016.0 |
| 20260510035003 | 52 | 77 | 2.6 | 6.1 | 0.00 | 0.00 | 0.00 | 87 | 1016.1 |
| 20260510034916 | 52 | 77 | 2.6 | 6.1 | 0.00 | 0.00 | 0.00 | 87 | 1016.1 |
| 20260510034904 | 52 | 71 | 2.6 | 8.7 | 0.00 | 0.00 | 0.00 | 87 | 1016.0 |
| 20260510034803 | 52 | 89 | 2.6 | 8.7 | 0.00 | 0.00 | 0.00 | 87 | 1016.2 |
| 20260510034603 | 52 | 104 | 2.6 | 8.7 | 0.00 | 0.00 | 0.00 | 87 | 1016.0 |
| 20260510034503 | 52 | 106 | 2.6 | 8.7 | 0.00 | 0.00 | 0.00 | 87 | 1016.1 |
| 20260510034403 | 52 | 101 | 1.7 | 8.7 | 0.00 | 0.00 | 0.00 | 87 | 1016.1 |
| 20260510034304 | 52 | 113 | 1.7 | 8.7 | 0.00 | 0.00 | 0.00 | 87 | 1016.0 |
| 20260510034204 | 52 | 104 | 1.7 | 8.7 | 0.00 | 0.00 | 0.00 | 87 | 1016.0 |
| 20260510034103 | 52 | 104 | 1.7 | 8.7 | 0.00 | 0.00 | 0.00 | 87 | 1016.0 |
| 20260510034014 | 52 | 104 | 1.7 | 8.7 | 0.00 | 0.00 | 0.00 | 87 | 1016.0 |
| 20260510034004 | 52 | 108 | 1.7 | 8.7 | 0.00 | 0.00 | 0.00 | 87 | 1016.0 |
| 20260510033903 | 52 | 113 | 1.7 | 8.7 | 0.00 | 0.00 | 0.00 | 87 | 1015.9 |
| 20260510033703 | 52 | 126 | 1.7 | 8.7 | 0.00 | 0.00 | 0.00 | 88 | 1015.9 |
| 20260510033603 | 52 | 49 | 1.7 | 8.7 | 0.00 | 0.00 | 0.00 | 87 | 1016.1 |
| 20260510033504 | 52 | 36 | 1.7 | 8.7 | 0.00 | 0.00 | 0.00 | 87 | 1016.2 |
| 20260510033403 | 52 | 9 | 1.7 | 8.7 | 0.00 | 0.00 | 0.00 | 87 | 1016.1 |
| 20260510033303 | 52 | 352 | 1.7 | 8.7 | 0.00 | 0.00 | 0.00 | 87 | 1016.2 |
| 20260510033213 | 52 | 352 | 1.7 | 8.7 | 0.00 | 0.00 | 0.00 | 87 | 1016.2 |
| 20260510033203 | 52 | 349 | 1.7 | 8.7 | 0.00 | 0.00 | 0.00 | 87 | 1016.1 |
| 20260510033103 | 52 | 340 | 1.7 | 8.7 | 0.00 | 0.00 | 0.00 | 87 | 1016.0 |
| 20260510032903 | 52 | 70 | 1.7 | 8.7 | 0.00 | 0.00 | 0.00 | 87 | 1016.3 |
| 20260510032803 | 52 | 79 | 1.7 | 8.7 | 0.00 | 0.00 | 0.00 | 87 | 1016.1 |
| 20260510032715 | 52 | 79 | 1.7 | 8.7 | 0.00 | 0.00 | 0.00 | 87 | 1016.1 |
| 20260510032703 | 52 | 58 | 1.7 | 8.7 | 0.00 | 0.00 | 0.00 | 87 | 1016.2 |
| 20260510032614 | 52 | 58 | 1.7 | 8.7 | 0.00 | 0.00 | 0.00 | 87 | 1016.2 |
| 20260510032603 | 53 | 38 | 2.6 | 8.7 | 0.00 | 0.00 | 0.00 | 87 | 1016.3 |
| 20260510032306 | 53 | 36 | 2.6 | 8.7 | 0.00 | 0.00 | 0.00 | 87 | 1016.1 |
| 20260510032213 | 53 | 36 | 2.6 | 8.7 | 0.00 | 0.00 | 0.00 | 87 | 1016.1 |
| 20260510032203 | 53 | 31 | 2.6 | 8.7 | 0.00 | 0.00 | 0.00 | 87 | 1016.1 |
| 20260510032104 | 53 | 40 | 2.6 | 8.7 | 0.00 | 0.00 | 0.00 | 87 | 1016.2 |
| 20260510031903 | 53 | 17 | 2.6 | 8.7 | 0.00 | 0.00 | 0.00 | 87 | 1016.2 |
| 20260510031803 | 53 | 347 | 2.6 | 7.8 | 0.00 | 0.00 | 0.00 | 87 | 1016.0 |
| 20260510031703 | 53 | 341 | 2.6 | 7.8 | 0.00 | 0.00 | 0.00 | 87 | 1016.0 |
| 20260510031603 | 53 | 309 | 2.6 | 7.8 | 0.00 | 0.00 | 0.00 | 87 | 1016.1 |
| 20260510031503 | 53 | 293 | 2.6 | 7.8 | 0.00 | 0.00 | 0.00 | 87 | 1016.0 |
| 20260510031403 | 53 | 300 | 2.6 | 7.8 | 0.00 | 0.00 | 0.00 | 87 | 1016.3 |
| 20260510031303 | 53 | 322 | 2.6 | 7.8 | 0.00 | 0.00 | 0.00 | 87 | 1016.1 |
| 20260510031203 | 53 | 319 | 2.6 | 7.8 | 0.00 | 0.00 | 0.00 | 87 | 1016.0 |
| 20260510031104 | 53 | 309 | 2.6 | 7.8 | 0.00 | 0.00 | 0.00 | 87 | 1016.1 |
| 20260510031003 | 53 | 304 | 2.6 | 7.8 | 0.00 | 0.00 | 0.00 | 87 | 1016.1 |
| 20260510030903 | 53 | 322 | 2.6 | 7.8 | 0.00 | 0.00 | 0.00 | 87 | 1016.1 |
| 20260510030804 | 53 | 349 | 2.6 | 7.0 | 0.00 | 0.00 | 0.00 | 87 | 1016.2 |
| 20260510030704 | 53 | 10 | 2.6 | 7.0 | 0.00 | 0.00 | 0.00 | 87 | 1015.9 |
| 20260510030616 | 53 | 10 | 2.6 | 7.0 | 0.00 | 0.00 | 0.00 | 87 | 1015.9 |
| 20260510030603 | 53 | 21 | 2.6 | 7.0 | 0.00 | 0.00 | 0.00 | 87 | 1016.1 |
| 20260510030503 | 53 | 37 | 2.6 | 7.0 | 0.00 | 0.00 | 0.00 | 87 | 1016.0 |
| 20260510030304 | 53 | 3 | 2.6 | 7.0 | 0.00 | 0.00 | 0.00 | 87 | 1016.1 |
| 20260510030204 | 53 | 35 | 1.7 | 7.0 | 0.00 | 0.00 | 0.00 | 87 | 1016.0 |
| 20260510030103 | 53 | 355 | 1.7 | 7.0 | 0.00 | 0.00 | 0.00 | 87 | 1016.0 |
| 20260510030004 | 53 | 319 | 1.7 | 7.0 | 0.00 | 0.00 | 0.00 | 86 | 1016.0 |
| 20260510025904 | 53 | 268 | 1.7 | 7.0 | 0.00 | 0.00 | 0.00 | 86 | 1015.9 |
| 20260510025804 | 53 | 163 | 1.7 | 7.0 | 0.00 | 0.00 | 0.00 | 86 | 1016.0 |
| 20260510025703 | 53 | 39 | 1.7 | 7.0 | 0.00 | 0.00 | 0.00 | 86 | 1016.0 |
| 20260510025604 | 53 | 149 | 1.7 | 7.0 | 0.00 | 0.00 | 0.00 | 86 | 1016.1 |
| 20260510025504 | 53 | 213 | 1.7 | 7.0 | 0.00 | 0.00 | 0.00 | 87 | 1016.0 |
| 20260510025403 | 53 | 169 | 1.7 | 6.1 | 0.00 | 0.00 | 0.00 | 87 | 1016.0 |
| 20260510025306 | 53 | 114 | 1.7 | 8.7 | 0.00 | 0.00 | 0.00 | 87 | 1016.1 |
| 20260510025203 | 53 | 169 | 2.6 | 8.7 | 0.00 | 0.00 | 0.00 | 87 | 1016.0 |
| 20260510025103 | 53 | 144 | 1.7 | 8.7 | 0.00 | 0.00 | 0.00 | 87 | 1016.1 |
| 20260510025003 | 53 | 113 | 1.7 | 8.7 | 0.00 | 0.00 | 0.00 | 87 | 1016.2 |
| 20260510024903 | 53 | 25 | 1.7 | 8.7 | 0.00 | 0.00 | 0.00 | 87 | 1016.2 |
| 20260510024821 | 53 | 25 | 1.7 | 8.7 | 0.00 | 0.00 | 0.00 | 87 | 1016.2 |
| 20260510024803 | 53 | 324 | 1.7 | 8.7 | 0.00 | 0.00 | 0.00 | 87 | 1016.0 |
| 20260510024703 | 53 | 300 | 1.7 | 8.7 | 0.00 | 0.00 | 0.00 | 87 | 1016.1 |
| 20260510024516 | 53 | 293 | 1.7 | 8.7 | 0.00 | 0.00 | 0.00 | 87 | 1016.1 |
| 20260510024504 | 53 | 300 | 1.7 | 8.7 | 0.00 | 0.00 | 0.00 | 87 | 1016.2 |
| 20260510024403 | 53 | 332 | 1.7 | 8.7 | 0.00 | 0.00 | 0.00 | 87 | 1016.1 |
| 20260510024204 | 53 | 343 | 1.7 | 8.7 | 0.00 | 0.00 | 0.00 | 87 | 1016.1 |
| 20260510024116 | 53 | 343 | 1.7 | 8.7 | 0.00 | 0.00 | 0.00 | 87 | 1016.1 |
| 20260510024104 | 53 | 344 | 1.7 | 7.0 | 0.00 | 0.00 | 0.00 | 87 | 1016.2 |
| 20260510024003 | 53 | 344 | 1.7 | 7.0 | 0.00 | 0.00 | 0.00 | 87 | 1016.4 |
| 20260510023803 | 53 | 27 | 1.7 | 6.1 | 0.00 | 0.00 | 0.00 | 87 | 1016.1 |
| 20260510023703 | 53 | 5 | 1.7 | 6.1 | 0.00 | 0.00 | 0.00 | 87 | 1016.1 |
| 20260510023604 | 53 | 324 | 1.7 | 6.1 | 0.00 | 0.00 | 0.00 | 87 | 1016.3 |
| 20260510023503 | 53 | 314 | 1.7 | 6.1 | 0.00 | 0.00 | 0.00 | 87 | 1016.4 |
| 20260510023404 | 53 | 345 | 1.7 | 6.1 | 0.00 | 0.00 | 0.00 | 87 | 1016.3 |
| 20260510023303 | 53 | 282 | 1.7 | 6.1 | 0.00 | 0.00 | 0.00 | 86 | 1016.3 |
| 20260510023204 | 53 | 326 | 1.7 | 6.1 | 0.00 | 0.00 | 0.00 | 86 | 1016.1 |
| 20260510023103 | 53 | 320 | 1.7 | 6.1 | 0.00 | 0.00 | 0.00 | 86 | 1016.1 |
| 20260510023003 | 53 | 69 | 1.7 | 7.0 | 0.00 | 0.00 | 0.00 | 86 | 1016.2 |
| 20260510022903 | 53 | 359 | 2.6 | 7.0 | 0.00 | 0.00 | 0.00 | 86 | 1016.1 |
| 20260510022803 | 53 | 47 | 2.6 | 7.0 | 0.00 | 0.00 | 0.00 | 86 | 1016.2 |
| 20260510022703 | 53 | 44 | 2.6 | 7.0 | 0.00 | 0.00 | 0.00 | 86 | 1016.2 |
| 20260510022604 | 53 | 42 | 1.7 | 7.0 | 0.00 | 0.00 | 0.00 | 86 | 1016.2 |
| 20260510022503 | 53 | 23 | 1.7 | 7.0 | 0.00 | 0.00 | 0.00 | 86 | 1016.4 |
| 20260510022403 | 53 | 303 | 1.7 | 7.0 | 0.00 | 0.00 | 0.00 | 86 | 1016.2 |
| 20260510022315 | 53 | 303 | 1.7 | 7.0 | 0.00 | 0.00 | 0.00 | 86 | 1016.2 |
| 20260510022306 | 53 | 309 | 1.7 | 7.0 | 0.00 | 0.00 | 0.00 | 86 | 1016.2 |
| 20260510022203 | 53 | 265 | 1.7 | 7.0 | 0.00 | 0.00 | 0.00 | 86 | 1016.2 |
| 20260510022003 | 53 | 264 | 1.7 | 7.0 | 0.00 | 0.00 | 0.00 | 86 | 1016.2 |
| 20260510021903 | 53 | 253 | 1.7 | 7.0 | 0.00 | 0.00 | 0.00 | 86 | 1016.1 |
| 20260510021813 | 53 | 253 | 1.7 | 7.0 | 0.00 | 0.00 | 0.00 | 86 | 1016.1 |
| 20260510021804 | 53 | 279 | 1.7 | 5.2 | 0.00 | 0.00 | 0.00 | 86 | 1016.1 |
| 20260510021703 | 53 | 288 | 1.7 | 5.2 | 0.00 | 0.00 | 0.00 | 86 | 1016.0 |
| 20260510021504 | 53 | 271 | 1.7 | 5.2 | 0.00 | 0.00 | 0.00 | 85 | 1016.2 |
| 20260510021403 | 53 | 257 | 1.7 | 5.2 | 0.00 | 0.00 | 0.00 | 85 | 1016.1 |
| 20260510021303 | 54 | 253 | 1.7 | 3.5 | 0.00 | 0.00 | 0.00 | 85 | 1016.1 |
| 20260510021203 | 54 | 274 | 1.7 | 5.2 | 0.00 | 0.00 | 0.00 | 85 | 1016.0 |
| 20260510021104 | 54 | 34 | 1.7 | 5.2 | 0.00 | 0.00 | 0.00 | 85 | 1016.3 |
| 20260510021003 | 54 | 58 | 1.7 | 5.2 | 0.00 | 0.00 | 0.00 | 85 | 1016.3 |
| 20260510020903 | 54 | 82 | 1.7 | 5.2 | 0.00 | 0.00 | 0.00 | 85 | 1016.1 |
| 20260510020803 | 54 | 83 | 1.7 | 5.2 | 0.00 | 0.00 | 0.00 | 84 | 1016.1 |
| 20260510020703 | 54 | 85 | 1.7 | 5.2 | 0.00 | 0.00 | 0.00 | 84 | 1016.1 |
| 20260510020603 | 54 | 101 | 1.7 | 5.2 | 0.00 | 0.00 | 0.00 | 84 | 1016.1 |
| 20260510020503 | 54 | 84 | 1.7 | 5.2 | 0.00 | 0.00 | 0.00 | 84 | 1016.1 |
| 20260510020403 | 54 | 74 | 1.7 | 5.2 | 0.00 | 0.00 | 0.00 | 84 | 1016.2 |
| 20260510020303 | 54 | 79 | 0.9 | 5.2 | 0.00 | 0.00 | 0.00 | 84 | 1016.2 |
| 20260510020203 | 54 | 87 | 0.9 | 5.2 | 0.00 | 0.00 | 0.00 | 84 | 1016.2 |
| 20260510020004 | 54 | 69 | 0.9 | 5.2 | 0.00 | 0.00 | 0.00 | 83 | 1016.3 |
| 20260510015903 | 54 | 39 | 0.9 | 5.2 | 0.00 | 0.00 | 0.00 | 83 | 1016.2 |
| 20260510015803 | 54 | 40 | 0.9 | 5.2 | 0.00 | 0.00 | 0.00 | 83 | 1016.1 |
| 20260510015703 | 54 | 65 | 0.9 | 5.2 | 0.00 | 0.00 | 0.00 | 83 | 1016.2 |
| 20260510015603 | 54 | 21 | 0.9 | 5.2 | 0.00 | 0.00 | 0.00 | 83 | 1016.2 |
| 20260510015503 | 54 | 11 | 0.9 | 5.2 | 0.00 | 0.00 | 0.00 | 82 | 1016.3 |
| 20260510015403 | 54 | 313 | 0.9 | 5.2 | 0.00 | 0.00 | 0.00 | 82 | 1016.2 |
| 20260510015306 | 54 | 326 | 0.9 | 5.2 | 0.00 | 0.00 | 0.00 | 82 | 1016.2 |
| 20260510015203 | 54 | 349 | 1.7 | 5.2 | 0.00 | 0.00 | 0.00 | 82 | 1016.3 |
| 20260510015103 | 54 | 16 | 0.9 | 5.2 | 0.00 | 0.00 | 0.00 | 82 | 1016.1 |
| 20260510015003 | 54 | 8 | 1.7 | 6.1 | 0.00 | 0.00 | 0.00 | 82 | 1016.2 |
| 20260510014912 | 54 | 8 | 1.7 | 6.1 | 0.00 | 0.00 | 0.00 | 82 | 1016.2 |
| 20260510014903 | 54 | 77 | 1.7 | 6.1 | 0.00 | 0.00 | 0.00 | 81 | 1016.3 |
| 20260510014816 | 54 | 77 | 1.7 | 6.1 | 0.00 | 0.00 | 0.00 | 81 | 1016.3 |
| 20260510014803 | 54 | 105 | 1.7 | 6.1 | 0.00 | 0.00 | 0.00 | 81 | 1016.4 |
| 20260510014613 | 54 | 85 | 1.7 | 6.1 | 0.00 | 0.00 | 0.00 | 81 | 1016.4 |
| 20260510014503 | 54 | 113 | 1.7 | 7.0 | 0.00 | 0.00 | 0.00 | 80 | 1016.4 |
| 20260510014303 | 54 | 93 | 1.7 | 7.0 | 0.00 | 0.00 | 0.00 | 80 | 1016.4 |
| 20260510014203 | 54 | 95 | 1.7 | 7.0 | 0.00 | 0.00 | 0.00 | 79 | 1016.4 |
| 20260510014103 | 54 | 100 | 1.7 | 7.0 | 0.00 | 0.00 | 0.00 | 79 | 1016.3 |
| 20260510014003 | 54 | 75 | 1.7 | 7.0 | 0.00 | 0.00 | 0.00 | 79 | 1016.2 |
| 20260510013903 | 54 | 34 | 1.7 | 7.0 | 0.00 | 0.00 | 0.00 | 79 | 1016.4 |
| 20260510013803 | 54 | 2 | 1.7 | 7.0 | 0.00 | 0.00 | 0.00 | 79 | 1016.2 |
| 20260510013703 | 54 | 7 | 1.7 | 7.0 | 0.00 | 0.00 | 0.00 | 79 | 1016.3 |
| 20260510013603 | 54 | 357 | 1.7 | 7.0 | 0.00 | 0.00 | 0.00 | 79 | 1016.5 |
| 20260510013513 | 54 | 357 | 1.7 | 7.0 | 0.00 | 0.00 | 0.00 | 79 | 1016.5 |
| 20260510013503 | 54 | 353 | 1.7 | 7.0 | 0.00 | 0.00 | 0.00 | 79 | 1016.4 |
| 20260510013403 | 54 | 359 | 1.7 | 7.0 | 0.00 | 0.00 | 0.00 | 79 | 1016.3 |
| 20260510013213 | 54 | 16 | 1.7 | 6.1 | 0.00 | 0.00 | 0.00 | 79 | 1016.3 |
| 20260510013203 | 54 | 30 | 1.7 | 6.1 | 0.00 | 0.00 | 0.00 | 79 | 1016.6 |
| 20260510013103 | 54 | 19 | 1.7 | 6.1 | 0.00 | 0.00 | 0.00 | 79 | 1016.4 |
| 20260510012903 | 54 | 59 | 1.7 | 6.1 | 0.00 | 0.00 | 0.00 | 79 | 1016.3 |
| 20260510012803 | 54 | 103 | 1.7 | 5.2 | 0.00 | 0.00 | 0.00 | 79 | 1016.3 |
| 20260510012703 | 54 | 100 | 1.7 | 5.2 | 0.00 | 0.00 | 0.00 | 79 | 1016.3 |
| 20260510012615 | 54 | 100 | 1.7 | 5.2 | 0.00 | 0.00 | 0.00 | 79 | 1016.3 |
| 20260510012604 | 54 | 116 | 0.9 | 5.2 | 0.00 | 0.00 | 0.00 | 79 | 1016.4 |
| 20260510012514 | 54 | 116 | 0.9 | 5.2 | 0.00 | 0.00 | 0.00 | 79 | 1016.4 |
| 20260510012503 | 54 | 137 | 0.9 | 5.2 | 0.00 | 0.00 | 0.00 | 79 | 1016.3 |
| 20260510012417 | 54 | 137 | 0.9 | 5.2 | 0.00 | 0.00 | 0.00 | 79 | 1016.3 |
| 20260510012103 | 54 | 125 | 0.9 | 5.2 | 0.00 | 0.00 | 0.00 | 79 | 1016.4 |
| 20260510012004 | 54 | 90 | 0.9 | 5.2 | 0.00 | 0.00 | 0.00 | 79 | 1016.4 |
| 20260510011915 | 54 | 90 | 0.9 | 5.2 | 0.00 | 0.00 | 0.00 | 79 | 1016.4 |
| 20260510011903 | 54 | 138 | 0.9 | 5.2 | 0.00 | 0.00 | 0.00 | 79 | 1016.4 |
| 20260510011803 | 54 | 125 | 1.7 | 5.2 | 0.00 | 0.00 | 0.00 | 79 | 1016.4 |
| 20260510011604 | 54 | 135 | 1.7 | 5.2 | 0.00 | 0.00 | 0.00 | 79 | 1016.4 |
| 20260510011503 | 54 | 120 | 1.7 | 5.2 | 0.00 | 0.00 | 0.00 | 79 | 1016.3 |
| 20260510011403 | 54 | 123 | 1.7 | 5.2 | 0.00 | 0.00 | 0.00 | 79 | 1016.2 |
| 20260510011304 | 54 | 114 | 1.7 | 5.2 | 0.00 | 0.00 | 0.00 | 79 | 1016.3 |
| 20260510011203 | 54 | 112 | 1.7 | 5.2 | 0.00 | 0.00 | 0.00 | 79 | 1016.4 |
| 20260510011103 | 54 | 109 | 1.7 | 5.2 | 0.00 | 0.00 | 0.00 | 79 | 1016.5 |
| 20260510011003 | 54 | 105 | 1.7 | 5.2 | 0.00 | 0.00 | 0.00 | 79 | 1016.4 |
| 20260510010916 | 54 | 105 | 1.7 | 5.2 | 0.00 | 0.00 | 0.00 | 79 | 1016.4 |
| 20260510010903 | 54 | 92 | 1.7 | 5.2 | 0.00 | 0.00 | 0.00 | 79 | 1016.4 |
| 20260510010803 | 54 | 86 | 1.7 | 5.2 | 0.00 | 0.00 | 0.00 | 79 | 1016.5 |
| 20260510010603 | 54 | 83 | 1.7 | 5.2 | 0.00 | 0.00 | 0.00 | 80 | 1016.4 |
| 20260510010503 | 54 | 79 | 1.7 | 5.2 | 0.00 | 0.00 | 0.00 | 79 | 1016.5 |
| 20260510010403 | 54 | 86 | 1.7 | 5.2 | 0.00 | 0.00 | 0.00 | 79 | 1016.4 |
| 20260510010313 | 54 | 86 | 1.7 | 5.2 | 0.00 | 0.00 | 0.00 | 79 | 1016.4 |
| 20260510010303 | 54 | 77 | 1.7 | 3.5 | 0.00 | 0.00 | 0.00 | 79 | 1016.4 |
| 20260510010203 | 54 | 80 | 1.7 | 3.5 | 0.00 | 0.00 | 0.00 | 80 | 1016.4 |
| 20260510010014 | 54 | 90 | 1.7 | 5.2 | 0.00 | 0.00 | 0.00 | 80 | 1016.5 |
| 20260510010003 | 54 | 94 | 1.7 | 5.2 | 0.00 | 0.00 | 0.00 | 80 | 1016.6 |
| 20260510005903 | 54 | 96 | 0.9 | 5.2 | 0.00 | 0.00 | 0.00 | 80 | 1016.3 |
| 20260510005703 | 54 | 83 | 1.7 | 5.2 | 0.00 | 0.00 | 0.00 | 79 | 1016.4 |
| 20260510005603 | 54 | 84 | 1.7 | 5.2 | 0.00 | 0.00 | 0.00 | 79 | 1016.2 |
| 20260510005503 | 54 | 93 | 0.9 | 5.2 | 0.00 | 0.00 | 0.00 | 79 | 1016.3 |
| 20260510005403 | 54 | 81 | 1.7 | 5.2 | 0.00 | 0.00 | 0.00 | 79 | 1016.4 |
| 20260510005314 | 54 | 81 | 1.7 | 5.2 | 0.00 | 0.00 | 0.00 | 79 | 1016.4 |
| 20260510005306 | 54 | 76 | 0.9 | 5.2 | 0.00 | 0.00 | 0.00 | 79 | 1016.3 |
| 20260510005203 | 54 | 67 | 0.9 | 5.2 | 0.00 | 0.00 | 0.00 | 79 | 1016.3 |
| 20260510005116 | 54 | 67 | 0.9 | 5.2 | 0.00 | 0.00 | 0.00 | 79 | 1016.3 |
| 20260510005004 | 54 | 61 | 0.9 | 3.5 | 0.00 | 0.00 | 0.00 | 79 | 1016.2 |
| 20260510004803 | 54 | 66 | 1.7 | 3.5 | 0.00 | 0.00 | 0.00 | 79 | 1016.3 |
| 20260510004703 | 54 | 72 | 0.9 | 3.5 | 0.00 | 0.00 | 0.00 | 79 | 1016.3 |
| 20260510004603 | 54 | 85 | 0.9 | 3.5 | 0.00 | 0.00 | 0.00 | 79 | 1016.3 |
| 20260510004503 | 54 | 84 | 0.9 | 3.5 | 0.00 | 0.00 | 0.00 | 79 | 1016.4 |
| 20260510004403 | 54 | 86 | 0.9 | 3.5 | 0.00 | 0.00 | 0.00 | 79 | 1016.4 |
| 20260510004303 | 54 | 91 | 0.9 | 3.5 | 0.00 | 0.00 | 0.00 | 79 | 1016.2 |
| 20260510004204 | 54 | 85 | 0.9 | 6.1 | 0.00 | 0.00 | 0.00 | 79 | 1016.3 |
| 20260510004103 | 54 | 74 | 0.9 | 6.1 | 0.00 | 0.00 | 0.00 | 79 | 1016.3 |
| 20260510004003 | 54 | 91 | 0.9 | 6.1 | 0.00 | 0.00 | 0.00 | 79 | 1016.6 |
| 20260510003903 | 54 | 78 | 0.9 | 6.1 | 0.00 | 0.00 | 0.00 | 78 | 1016.5 |
| 20260510003803 | 54 | 69 | 0.9 | 6.1 | 0.00 | 0.00 | 0.00 | 78 | 1016.4 |
| 20260510003716 | 54 | 69 | 0.9 | 6.1 | 0.00 | 0.00 | 0.00 | 78 | 1016.4 |
| 20260510003703 | 54 | 75 | 1.7 | 6.1 | 0.00 | 0.00 | 0.00 | 78 | 1016.3 |
| 20260510003603 | 54 | 61 | 1.7 | 6.1 | 0.00 | 0.00 | 0.00 | 78 | 1016.4 |
| 20260510003417 | 54 | 50 | 1.7 | 6.1 | 0.00 | 0.00 | 0.00 | 78 | 1016.4 |
| 20260510003403 | 54 | 41 | 1.7 | 7.0 | 0.00 | 0.00 | 0.00 | 78 | 1016.4 |
| 20260510003303 | 54 | 29 | 1.7 | 7.0 | 0.00 | 0.00 | 0.00 | 78 | 1016.4 |
| 20260510003103 | 54 | 18 | 1.7 | 7.0 | 0.00 | 0.00 | 0.00 | 78 | 1016.5 |
| 20260510003016 | 54 | 18 | 1.7 | 7.0 | 0.00 | 0.00 | 0.00 | 78 | 1016.5 |
| 20260510003003 | 54 | 15 | 1.7 | 7.0 | 0.00 | 0.00 | 0.00 | 78 | 1016.4 |
| 20260510002903 | 54 | 19 | 1.7 | 7.0 | 0.00 | 0.00 | 0.00 | 78 | 1016.5 |
| 20260510002706 | 54 | 26 | 2.6 | 7.0 | 0.00 | 0.00 | 0.00 | 78 | 1016.5 |
| 20260510002603 | 54 | 40 | 2.6 | 7.0 | 0.00 | 0.00 | 0.00 | 78 | 1016.5 |
| 20260510002503 | 54 | 60 | 1.7 | 7.0 | 0.00 | 0.00 | 0.00 | 78 | 1016.2 |
| 20260510002403 | 54 | 85 | 1.7 | 7.0 | 0.00 | 0.00 | 0.00 | 78 | 1016.5 |
| 20260510002306 | 54 | 104 | 1.7 | 7.0 | 0.00 | 0.00 | 0.00 | 78 | 1016.4 |
| 20260510002203 | 54 | 129 | 1.7 | 6.1 | 0.00 | 0.00 | 0.00 | 78 | 1016.4 |
| 20260510002114 | 54 | 129 | 1.7 | 6.1 | 0.00 | 0.00 | 0.00 | 78 | 1016.4 |
| 20260510002103 | 54 | 125 | 1.7 | 6.1 | 0.00 | 0.00 | 0.00 | 78 | 1016.4 |
| 20260510002017 | 54 | 125 | 1.7 | 6.1 | 0.00 | 0.00 | 0.00 | 78 | 1016.4 |
| 20260510002003 | 54 | 128 | 1.7 | 6.1 | 0.00 | 0.00 | 0.00 | 78 | 1016.5 |
| 20260510001703 | 54 | 138 | 1.7 | 6.1 | 0.00 | 0.00 | 0.00 | 78 | 1016.5 |
| 20260510001603 | 54 | 147 | 1.7 | 6.1 | 0.00 | 0.00 | 0.00 | 77 | 1016.2 |
| 20260510001503 | 54 | 129 | 1.7 | 6.1 | 0.00 | 0.00 | 0.00 | 77 | 1016.4 |
| 20260510001403 | 54 | 105 | 1.7 | 5.2 | 0.00 | 0.00 | 0.00 | 77 | 1016.5 |
| 20260510001303 | 54 | 84 | 1.7 | 5.2 | 0.00 | 0.00 | 0.00 | 77 | 1016.6 |
| 20260510001203 | 54 | 77 | 1.7 | 5.2 | 0.00 | 0.00 | 0.00 | 77 | 1016.2 |
| 20260510001103 | 54 | 90 | 1.7 | 5.2 | 0.00 | 0.00 | 0.00 | 77 | 1016.4 |
| 20260510001003 | 54 | 87 | 1.7 | 5.2 | 0.00 | 0.00 | 0.00 | 77 | 1016.4 |
| 20260510000903 | 54 | 81 | 1.7 | 5.2 | 0.00 | 0.00 | 0.00 | 77 | 1016.4 |
| 20260510000803 | 54 | 80 | 1.7 | 5.2 | 0.00 | 0.00 | 0.00 | 77 | 1016.4 |
| 20260510000703 | 54 | 95 | 1.7 | 5.2 | 0.00 | 0.00 | 0.00 | 77 | 1016.6 |
| 20260510000603 | 54 | 94 | 1.7 | 5.2 | 0.00 | 0.00 | 0.00 | 77 | 1016.6 |
| 20260510000503 | 54 | 98 | 1.7 | 5.2 | 0.00 | 0.00 | 0.00 | 77 | 1016.6 |
| 20260510000403 | 54 | 94 | 0.9 | 5.2 | 0.00 | 0.00 | 0.00 | 77 | 1016.5 |
| 20260510000304 | 54 | 94 | 1.7 | 3.5 | 0.00 | 0.00 | 0.00 | 77 | 1016.7 |
| 20260510000204 | 54 | 86 | 1.7 | 6.1 | 0.00 | 0.00 | 0.00 | 77 | 1016.6 |
| 20260510000103 | 54 | 93 | 1.7 | 6.1 | 0.00 | 0.00 | 0.00 | 77 | 1016.8 |
| 20260510000003 | 54 | 87 | 1.7 | 6.1 | 0.00 | 0.00 | 0.00 | 77 | 1016.7 |
| 20260509235903 | 54 | 86 | 1.7 | 6.1 | 0.00 | 0.00 | 0.00 | 77 | 1017.0 |
| 20260509235803 | 54 | 86 | 1.7 | 6.1 | 0.00 | 0.00 | 0.00 | 77 | 1016.8 |
| 20260509235703 | 54 | 86 | 1.7 | 6.1 | 0.00 | 0.00 | 0.00 | 77 | 1016.6 |
| 20260509235603 | 54 | 91 | 1.7 | 6.1 | 0.00 | 0.00 | 0.00 | 77 | 1016.7 |
| 20260509235503 | 54 | 87 | 1.7 | 6.1 | 0.00 | 0.00 | 0.00 | 77 | 1016.7 |
| 20260509235403 | 54 | 89 | 1.7 | 6.1 | 0.00 | 0.00 | 0.00 | 77 | 1016.7 |
| 20260509235306 | 54 | 96 | 1.7 | 6.1 | 0.00 | 0.00 | 0.00 | 77 | 1016.6 |
| 20260509235204 | 54 | 95 | 1.7 | 6.1 | 0.00 | 0.00 | 0.00 | 77 | 1016.6 |
| 20260509235103 | 54 | 95 | 1.7 | 6.1 | 0.00 | 0.00 | 0.00 | 77 | 1016.7 |
| 20260509235003 | 54 | 101 | 1.7 | 5.2 | 0.00 | 0.00 | 0.00 | 76 | 1016.7 |
| 20260509234903 | 54 | 100 | 1.7 | 5.2 | 0.00 | 0.00 | 0.00 | 76 | 1016.6 |
| 20260509234803 | 54 | 106 | 1.7 | 5.2 | 0.00 | 0.00 | 0.00 | 76 | 1016.6 |
| 20260509234703 | 54 | 99 | 1.7 | 5.2 | 0.00 | 0.00 | 0.00 | 76 | 1016.6 |
| 20260509234603 | 54 | 91 | 1.7 | 5.2 | 0.00 | 0.00 | 0.00 | 76 | 1016.6 |
| 20260509234503 | 54 | 90 | 1.7 | 5.2 | 0.00 | 0.00 | 0.00 | 76 | 1016.7 |
| 20260509234403 | 54 | 95 | 1.7 | 6.1 | 0.00 | 0.00 | 0.00 | 76 | 1016.8 |
| 20260509234303 | 54 | 99 | 1.7 | 6.1 | 0.00 | 0.00 | 0.00 | 76 | 1016.8 |
| 20260509234203 | 54 | 102 | 1.7 | 6.1 | 0.00 | 0.00 | 0.00 | 76 | 1016.7 |
| 20260509234103 | 54 | 95 | 1.7 | 6.1 | 0.00 | 0.00 | 0.00 | 76 | 1016.7 |
| 20260509234003 | 54 | 91 | 1.7 | 6.1 | 0.00 | 0.00 | 0.00 | 76 | 1016.9 |
| 20260509233903 | 54 | 92 | 1.7 | 6.1 | 0.00 | 0.00 | 0.00 | 76 | 1016.9 |
| 20260509233803 | 54 | 91 | 1.7 | 6.1 | 0.00 | 0.00 | 0.00 | 76 | 1016.9 |
| 20260509233703 | 54 | 91 | 1.7 | 7.0 | 0.00 | 0.00 | 0.00 | 76 | 1016.8 |
| 20260509233603 | 54 | 94 | 1.7 | 7.0 | 0.00 | 0.00 | 0.00 | 76 | 1016.8 |
| 20260509233503 | 54 | 97 | 1.7 | 7.0 | 0.00 | 0.00 | 0.00 | 76 | 1016.7 |
| 20260509233403 | 54 | 90 | 1.7 | 7.0 | 0.00 | 0.00 | 0.00 | 76 | 1016.8 |
| 20260509233303 | 54 | 84 | 1.7 | 7.0 | 0.00 | 0.00 | 0.00 | 76 | 1016.9 |
| 20260509233203 | 54 | 89 | 1.7 | 7.0 | 0.00 | 0.00 | 0.00 | 76 | 1016.9 |
| 20260509233113 | 54 | 89 | 1.7 | 7.0 | 0.00 | 0.00 | 0.00 | 76 | 1016.9 |
| 20260509233103 | 54 | 92 | 1.7 | 7.0 | 0.00 | 0.00 | 0.00 | 76 | 1016.7 |
| 20260509233003 | 54 | 90 | 1.7 | 7.0 | 0.00 | 0.00 | 0.00 | 76 | 1016.9 |
| 20260509232803 | 54 | 95 | 1.7 | 7.0 | 0.00 | 0.00 | 0.00 | 76 | 1017.0 |
| 20260509232703 | 54 | 95 | 1.7 | 7.0 | 0.00 | 0.00 | 0.00 | 76 | 1016.9 |
| 20260509232603 | 54 | 102 | 1.7 | 7.0 | 0.00 | 0.00 | 0.00 | 76 | 1016.9 |
| 20260509232503 | 54 | 95 | 1.7 | 5.2 | 0.00 | 0.00 | 0.00 | 76 | 1016.9 |
| 20260509232403 | 54 | 108 | 1.7 | 5.2 | 0.00 | 0.00 | 0.00 | 76 | 1017.1 |
| 20260509232306 | 54 | 115 | 1.7 | 5.2 | 0.00 | 0.00 | 0.00 | 76 | 1017.0 |
| 20260509232203 | 54 | 101 | 1.7 | 5.2 | 0.00 | 0.00 | 0.00 | 76 | 1017.0 |
| 20260509232103 | 54 | 96 | 1.7 | 3.5 | 0.00 | 0.00 | 0.00 | 76 | 1016.9 |
| 20260509232003 | 54 | 115 | 1.7 | 3.5 | 0.00 | 0.00 | 0.00 | 76 | 1017.0 |
| 20260509231903 | 54 | 130 | 1.7 | 3.5 | 0.00 | 0.00 | 0.00 | 76 | 1016.7 |
| 20260509231803 | 54 | 123 | 1.7 | 5.2 | 0.00 | 0.00 | 0.00 | 76 | 1016.8 |
| 20260509231714 | 54 | 123 | 1.7 | 5.2 | 0.00 | 0.00 | 0.00 | 76 | 1016.8 |
| 20260509231703 | 54 | 121 | 1.7 | 5.2 | 0.00 | 0.00 | 0.00 | 76 | 1016.9 |
| 20260509231603 | 54 | 101 | 1.7 | 5.2 | 0.00 | 0.00 | 0.00 | 76 | 1016.8 |
| 20260509231516 | 54 | 101 | 1.7 | 5.2 | 0.00 | 0.00 | 0.00 | 76 | 1016.8 |
| 20260509231403 | 54 | 85 | 1.7 | 5.2 | 0.00 | 0.00 | 0.00 | 76 | 1017.0 |
| 20260509231203 | 54 | 81 | 1.7 | 5.2 | 0.00 | 0.00 | 0.00 | 77 | 1016.7 |
| 20260509231103 | 54 | 84 | 0.9 | 5.2 | 0.00 | 0.00 | 0.00 | 76 | 1016.8 |
| 20260509231004 | 54 | 84 | 0.9 | 5.2 | 0.00 | 0.00 | 0.00 | 77 | 1016.8 |
| 20260509230903 | 54 | 77 | 0.9 | 5.2 | 0.00 | 0.00 | 0.00 | 77 | 1016.8 |
| 20260509230816 | 54 | 77 | 0.9 | 5.2 | 0.00 | 0.00 | 0.00 | 77 | 1016.8 |
| 20260509230803 | 54 | 73 | 0.9 | 5.2 | 0.00 | 0.00 | 0.00 | 77 | 1017.0 |
| 20260509230703 | 54 | 67 | 0.9 | 5.2 | 0.00 | 0.00 | 0.00 | 77 | 1016.8 |
| 20260509230503 | 54 | 71 | 0.9 | 5.2 | 0.00 | 0.00 | 0.00 | 77 | 1017.1 |
| 20260509230404 | 54 | 83 | 0.9 | 5.2 | 0.00 | 0.00 | 0.00 | 77 | 1016.8 |
| 20260509230303 | 54 | 91 | 0.9 | 5.2 | 0.00 | 0.00 | 0.00 | 77 | 1017.0 |
| 20260509230218 | 54 | 91 | 0.9 | 5.2 | 0.00 | 0.00 | 0.00 | 77 | 1017.0 |
| 20260509230203 | 54 | 93 | 0.9 | 5.2 | 0.00 | 0.00 | 0.00 | 77 | 1016.7 |
| 20260509230103 | 54 | 90 | 0.9 | 5.2 | 0.00 | 0.00 | 0.00 | 77 | 1017.0 |
| 20260509230015 | 54 | 90 | 0.9 | 5.2 | 0.00 | 0.00 | 0.00 | 77 | 1017.0 |
| 20260509225913 | 54 | 59 | 0.9 | 6.1 | 0.00 | 0.00 | 0.00 | 77 | 1016.8 |
| 20260509225903 | 54 | 72 | 0.9 | 6.1 | 0.00 | 0.00 | 0.00 | 77 | 1016.7 |
| 20260509225603 | 54 | 83 | 0.9 | 6.1 | 0.00 | 0.00 | 0.00 | 77 | 1016.7 |
| 20260509225513 | 54 | 83 | 0.9 | 6.1 | 0.00 | 0.00 | 0.00 | 77 | 1016.7 |
| 20260509225503 | 54 | 89 | 0.9 | 6.1 | 0.00 | 0.00 | 0.00 | 77 | 1016.8 |
| 20260509225403 | 54 | 86 | 0.9 | 6.1 | 0.00 | 0.00 | 0.00 | 77 | 1016.8 |
| 20260509225213 | 54 | 91 | 0.9 | 6.1 | 0.00 | 0.00 | 0.00 | 77 | 1016.7 |
| 20260509225203 | 54 | 88 | 1.7 | 6.1 | 0.00 | 0.00 | 0.00 | 77 | 1016.7 |
| 20260509225104 | 54 | 90 | 1.7 | 6.1 | 0.00 | 0.00 | 0.00 | 77 | 1016.7 |
| 20260509224903 | 54 | 96 | 1.7 | 6.1 | 0.00 | 0.00 | 0.00 | 77 | 1016.7 |
| 20260509224803 | 54 | 98 | 1.7 | 5.2 | 0.00 | 0.00 | 0.00 | 77 | 1016.9 |
| 20260509224703 | 54 | 107 | 1.7 | 5.2 | 0.00 | 0.00 | 0.00 | 77 | 1016.8 |
| 20260509224603 | 54 | 115 | 1.7 | 5.2 | 0.00 | 0.00 | 0.00 | 77 | 1016.9 |
| 20260509224504 | 54 | 111 | 1.7 | 5.2 | 0.00 | 0.00 | 0.00 | 77 | 1016.6 |
| 20260509224412 | 54 | 111 | 1.7 | 5.2 | 0.00 | 0.00 | 0.00 | 77 | 1016.6 |
| 20260509224403 | 54 | 111 | 1.7 | 5.2 | 0.00 | 0.00 | 0.00 | 77 | 1016.7 |
| 20260509224303 | 54 | 105 | 1.7 | 5.2 | 0.00 | 0.00 | 0.00 | 77 | 1016.8 |
| 20260509224113 | 54 | 104 | 1.7 | 5.2 | 0.00 | 0.00 | 0.00 | 77 | 1016.8 |
| 20260509224103 | 54 | 102 | 1.7 | 5.2 | 0.00 | 0.00 | 0.00 | 77 | 1016.9 |
| 20260509224003 | 54 | 104 | 0.9 | 5.2 | 0.00 | 0.00 | 0.00 | 77 | 1016.9 |
| 20260509223804 | 54 | 99 | 0.9 | 5.2 | 0.00 | 0.00 | 0.00 | 77 | 1016.9 |
| 20260509223703 | 54 | 95 | 0.9 | 3.5 | 0.00 | 0.00 | 0.00 | 78 | 1016.7 |
| 20260509223603 | 54 | 89 | 0.9 | 5.2 | 0.00 | 0.00 | 0.00 | 78 | 1016.8 |
| 20260509223503 | 54 | 87 | 0.9 | 5.2 | 0.00 | 0.00 | 0.00 | 78 | 1016.9 |
| 20260509223403 | 54 | 96 | 0.9 | 6.1 | 0.00 | 0.00 | 0.00 | 78 | 1016.8 |
| 20260509223303 | 54 | 99 | 0.9 | 6.1 | 0.00 | 0.00 | 0.00 | 77 | 1016.8 |
| 20260509223203 | 54 | 110 | 0.9 | 6.1 | 0.00 | 0.00 | 0.00 | 77 | 1016.9 |
| 20260509223103 | 54 | 115 | 0.9 | 6.1 | 0.00 | 0.00 | 0.00 | 77 | 1016.6 |
| 20260509223003 | 54 | 116 | 0.9 | 6.1 | 0.00 | 0.00 | 0.00 | 78 | 1017.0 |
| 20260509222916 | 54 | 116 | 0.9 | 6.1 | 0.00 | 0.00 | 0.00 | 78 | 1017.0 |
| 20260509222903 | 54 | 124 | 0.9 | 6.1 | 0.00 | 0.00 | 0.00 | 78 | 1016.7 |
| 20260509222803 | 54 | 120 | 0.9 | 6.1 | 0.00 | 0.00 | 0.00 | 78 | 1016.9 |
| 20260509222603 | 54 | 115 | 0.9 | 6.1 | 0.00 | 0.00 | 0.00 | 78 | 1016.7 |
| 20260509222503 | 54 | 125 | 0.9 | 6.1 | 0.00 | 0.00 | 0.00 | 78 | 1016.8 |
| 20260509222414 | 54 | 125 | 0.9 | 6.1 | 0.00 | 0.00 | 0.00 | 78 | 1016.8 |
| 20260509222403 | 54 | 112 | 0.9 | 6.1 | 0.00 | 0.00 | 0.00 | 78 | 1016.6 |
| 20260509222306 | 54 | 115 | 0.9 | 3.5 | 0.00 | 0.00 | 0.00 | 78 | 1017.0 |
| 20260509222103 | 54 | 106 | 0.9 | 3.5 | 0.00 | 0.00 | 0.00 | 78 | 1016.9 |
| 20260509222003 | 54 | 106 | 0.9 | 3.5 | 0.00 | 0.00 | 0.00 | 78 | 1016.9 |
| 20260509221903 | 54 | 109 | 0.9 | 3.5 | 0.00 | 0.00 | 0.00 | 78 | 1016.9 |
| 20260509221803 | 54 | 104 | 0.9 | 3.5 | 0.00 | 0.00 | 0.00 | 78 | 1017.0 |
| 20260509221703 | 54 | 106 | 0.9 | 3.5 | 0.00 | 0.00 | 0.00 | 78 | 1017.0 |
| 20260509221603 | 54 | 102 | 0.9 | 3.5 | 0.00 | 0.00 | 0.00 | 78 | 1016.8 |
| 20260509221503 | 54 | 103 | 0.9 | 3.5 | 0.00 | 0.00 | 0.00 | 78 | 1016.9 |
| 20260509221415 | 54 | 103 | 0.9 | 3.5 | 0.00 | 0.00 | 0.00 | 78 | 1016.9 |
| 20260509221404 | 54 | 91 | 0.9 | 3.5 | 0.00 | 0.00 | 0.00 | 78 | 1016.9 |
| 20260509221303 | 54 | 97 | 0.9 | 3.5 | 0.00 | 0.00 | 0.00 | 78 | 1017.0 |
| 20260509221116 | 54 | 77 | 0.9 | 3.5 | 0.00 | 0.00 | 0.00 | 77 | 1016.9 |
| 20260509221103 | 55 | 75 | 0.9 | 3.5 | 0.00 | 0.00 | 0.00 | 77 | 1016.9 |
| 20260509221014 | 55 | 75 | 0.9 | 3.5 | 0.00 | 0.00 | 0.00 | 77 | 1016.9 |
| 20260509221003 | 55 | 80 | 0.9 | 3.5 | 0.00 | 0.00 | 0.00 | 77 | 1016.8 |
| 20260509220715 | 55 | 54 | 0.9 | 3.5 | 0.00 | 0.00 | 0.00 | 77 | 1016.9 |
| 20260509220703 | 55 | 53 | 0.9 | 3.5 | 0.00 | 0.00 | 0.00 | 77 | 1016.8 |
| 20260509220604 | 55 | 62 | 0.9 | 3.5 | 0.00 | 0.00 | 0.00 | 77 | 1016.9 |
| 20260509220403 | 55 | 58 | 0.9 | 3.5 | 0.00 | 0.00 | 0.00 | 77 | 1016.7 |
| 20260509220303 | 55 | 46 | 0.9 | 3.5 | 0.00 | 0.00 | 0.00 | 76 | 1016.9 |
| 20260509220203 | 55 | 66 | 1.7 | 3.5 | 0.00 | 0.00 | 0.00 | 76 | 1016.9 |
| 20260509220015 | 55 | 60 | 1.7 | 3.5 | 0.00 | 0.00 | 0.00 | 76 | 1016.8 |
| 20260509220004 | 55 | 53 | 1.7 | 3.5 | 0.00 | 0.00 | 0.00 | 76 | 1016.9 |
| 20260509215903 | 55 | 56 | 0.9 | 3.5 | 0.00 | 0.00 | 0.00 | 76 | 1016.8 |
| 20260509215716 | 55 | 75 | 1.7 | 3.5 | 0.00 | 0.00 | 0.00 | 76 | 1016.8 |
| 20260509215704 | 55 | 87 | 1.7 | 5.2 | 0.00 | 0.00 | 0.00 | 76 | 1016.7 |
| 20260509215603 | 55 | 112 | 1.7 | 5.2 | 0.00 | 0.00 | 0.00 | 76 | 1016.8 |
| 20260509215403 | 55 | 116 | 1.7 | 5.2 | 0.00 | 0.00 | 0.00 | 76 | 1016.8 |
| 20260509215316 | 55 | 116 | 1.7 | 5.2 | 0.00 | 0.00 | 0.00 | 76 | 1016.8 |
| 20260509215305 | 55 | 130 | 1.7 | 5.2 | 0.00 | 0.00 | 0.00 | 75 | 1016.6 |
| 20260509215203 | 55 | 131 | 1.7 | 5.2 | 0.00 | 0.00 | 0.00 | 75 | 1016.8 |
| 20260509215003 | 55 | 133 | 1.7 | 5.2 | 0.00 | 0.00 | 0.00 | 75 | 1016.8 |
| 20260509214915 | 55 | 133 | 1.7 | 5.2 | 0.00 | 0.00 | 0.00 | 75 | 1016.8 |
| 20260509214903 | 55 | 126 | 1.7 | 5.2 | 0.00 | 0.00 | 0.00 | 75 | 1016.9 |
| 20260509214814 | 55 | 126 | 1.7 | 5.2 | 0.00 | 0.00 | 0.00 | 75 | 1016.9 |
| 20260509214803 | 55 | 121 | 1.7 | 5.2 | 0.00 | 0.00 | 0.00 | 75 | 1016.7 |
| 20260509214616 | 55 | 115 | 1.7 | 5.2 | 0.00 | 0.00 | 0.00 | 75 | 1016.8 |
| 20260509214504 | 55 | 96 | 0.9 | 3.5 | 0.00 | 0.00 | 0.00 | 75 | 1016.8 |
| 20260509214317 | 55 | 86 | 0.9 | 3.5 | 0.00 | 0.00 | 0.00 | 75 | 1016.9 |
| 20260509214303 | 55 | 68 | 0.9 | 3.5 | 0.00 | 0.00 | 0.00 | 75 | 1016.9 |
| 20260509214203 | 55 | 49 | 0.9 | 2.6 | 0.00 | 0.00 | 0.00 | 74 | 1016.8 |
| 20260509214003 | 55 | 41 | 0.9 | 2.6 | 0.00 | 0.00 | 0.00 | 74 | 1016.8 |
| 20260509213904 | 55 | 35 | 0.9 | 3.5 | 0.00 | 0.00 | 0.00 | 74 | 1016.8 |
| 20260509213803 | 55 | 34 | 0.9 | 3.5 | 0.00 | 0.00 | 0.00 | 74 | 1016.9 |
| 20260509213703 | 55 | 53 | 0.9 | 3.5 | 0.00 | 0.00 | 0.00 | 74 | 1016.9 |
| 20260509213603 | 55 | 51 | 0.9 | 3.5 | 0.00 | 0.00 | 0.00 | 74 | 1017.0 |
| 20260509213503 | 55 | 56 | 0.9 | 3.5 | 0.00 | 0.00 | 0.00 | 74 | 1017.0 |
| 20260509213403 | 55 | 59 | 0.9 | 3.5 | 0.00 | 0.00 | 0.00 | 74 | 1016.9 |
| 20260509213304 | 55 | 62 | 0.9 | 3.5 | 0.00 | 0.00 | 0.00 | 73 | 1016.9 |
| 20260509213203 | 55 | 76 | 0.9 | 3.5 | 0.00 | 0.00 | 0.00 | 73 | 1016.9 |
| 20260509213103 | 55 | 66 | 0.9 | 3.5 | 0.00 | 0.00 | 0.00 | 73 | 1016.9 |
| 20260509213003 | 55 | 82 | 0.9 | 3.5 | 0.00 | 0.00 | 0.00 | 73 | 1016.7 |
| 20260509212903 | 55 | 75 | 0.9 | 3.5 | 0.00 | 0.00 | 0.00 | 73 | 1016.8 |
| 20260509212803 | 55 | 64 | 0.9 | 3.5 | 0.00 | 0.00 | 0.00 | 73 | 1016.9 |
| 20260509212703 | 55 | 70 | 0.9 | 2.6 | 0.00 | 0.00 | 0.00 | 73 | 1016.8 |
| 20260509212603 | 55 | 107 | 0.9 | 2.6 | 0.00 | 0.00 | 0.00 | 73 | 1016.8 |
| 20260509212503 | 55 | 105 | 0.9 | 3.5 | 0.00 | 0.00 | 0.00 | 73 | 1016.8 |
| 20260509212403 | 55 | 13 | 0.9 | 3.5 | 0.00 | 0.00 | 0.00 | 73 | 1016.8 |
| 20260509212313 | 55 | 13 | 0.9 | 3.5 | 0.00 | 0.00 | 0.00 | 73 | 1016.8 |
| 20260509212305 | 55 | 72 | 0.9 | 5.2 | 0.00 | 0.00 | 0.00 | 73 | 1016.9 |
| 20260509212204 | 55 | 85 | 0.9 | 5.2 | 0.00 | 0.00 | 0.00 | 73 | 1016.6 |
| 20260509212116 | 55 | 85 | 0.9 | 5.2 | 0.00 | 0.00 | 0.00 | 73 | 1016.6 |
| 20260509212003 | 55 | 123 | 1.7 | 5.2 | 0.00 | 0.00 | 0.00 | 73 | 1016.6 |
| 20260509211803 | 55 | 127 | 1.7 | 5.2 | 0.00 | 0.00 | 0.00 | 73 | 1016.7 |
| 20260509211703 | 55 | 125 | 1.7 | 5.2 | 0.00 | 0.00 | 0.00 | 73 | 1017.0 |
| 20260509211604 | 55 | 116 | 1.7 | 5.2 | 0.00 | 0.00 | 0.00 | 73 | 1016.9 |
| 20260509211512 | 55 | 116 | 1.7 | 5.2 | 0.00 | 0.00 | 0.00 | 73 | 1016.9 |
| 20260509211504 | 55 | 117 | 1.7 | 5.2 | 0.00 | 0.00 | 0.00 | 73 | 1016.9 |
| 20260509211403 | 55 | 126 | 1.7 | 5.2 | 0.00 | 0.00 | 0.00 | 73 | 1017.0 |
| 20260509211203 | 55 | 123 | 0.9 | 5.2 | 0.00 | 0.00 | 0.00 | 73 | 1016.8 |
| 20260509211103 | 55 | 105 | 1.7 | 5.2 | 0.00 | 0.00 | 0.00 | 73 | 1016.7 |
| 20260509211003 | 55 | 84 | 1.7 | 5.2 | 0.00 | 0.00 | 0.00 | 73 | 1016.7 |
| 20260509210904 | 55 | 88 | 0.9 | 5.2 | 0.00 | 0.00 | 0.00 | 73 | 1016.8 |
| 20260509210803 | 55 | 83 | 0.9 | 6.1 | 0.00 | 0.00 | 0.00 | 73 | 1016.7 |
| 20260509210703 | 55 | 86 | 0.9 | 6.1 | 0.00 | 0.00 | 0.00 | 73 | 1016.8 |
| 20260509210614 | 55 | 86 | 0.9 | 6.1 | 0.00 | 0.00 | 0.00 | 73 | 1016.8 |
| 20260509210603 | 55 | 98 | 1.7 | 6.1 | 0.00 | 0.00 | 0.00 | 73 | 1016.9 |
| 20260509210503 | 55 | 98 | 0.9 | 6.1 | 0.00 | 0.00 | 0.00 | 73 | 1016.8 |
| 20260509210303 | 55 | 93 | 0.9 | 6.1 | 0.00 | 0.00 | 0.00 | 73 | 1016.7 |
| 20260509210204 | 55 | 99 | 0.9 | 6.1 | 0.00 | 0.00 | 0.00 | 74 | 1016.6 |
| 20260509210104 | 55 | 101 | 0.9 | 6.1 | 0.00 | 0.00 | 0.00 | 74 | 1016.7 |
| 20260509210004 | 55 | 99 | 0.9 | 6.1 | 0.00 | 0.00 | 0.00 | 74 | 1016.6 |
| 20260509205903 | 55 | 95 | 0.9 | 6.1 | 0.00 | 0.00 | 0.00 | 74 | 1016.6 |
| 20260509205813 | 55 | 95 | 0.9 | 6.1 | 0.00 | 0.00 | 0.00 | 74 | 1016.6 |
| 20260509205804 | 55 | 82 | 0.9 | 6.1 | 0.00 | 0.00 | 0.00 | 74 | 1016.6 |
| 20260509205717 | 55 | 82 | 0.9 | 6.1 | 0.00 | 0.00 | 0.00 | 74 | 1016.6 |
| 20260509205703 | 55 | 71 | 0.9 | 6.1 | 0.00 | 0.00 | 0.00 | 74 | 1016.6 |
| 20260509205403 | 55 | 66 | 1.7 | 5.2 | 0.00 | 0.00 | 0.00 | 74 | 1016.8 |
| 20260509205307 | 55 | 65 | 1.7 | 5.2 | 0.00 | 0.00 | 0.00 | 74 | 1016.6 |
| 20260509205203 | 55 | 66 | 1.7 | 5.2 | 0.00 | 0.00 | 0.00 | 74 | 1016.4 |
| 20260509205103 | 55 | 67 | 1.7 | 5.2 | 0.00 | 0.00 | 0.00 | 74 | 1016.6 |
| 20260509205004 | 55 | 71 | 1.7 | 5.2 | 0.00 | 0.00 | 0.00 | 74 | 1016.5 |
| 20260509204903 | 55 | 73 | 1.7 | 5.2 | 0.00 | 0.00 | 0.00 | 74 | 1016.6 |
| 20260509204803 | 55 | 78 | 1.7 | 5.2 | 0.00 | 0.00 | 0.00 | 75 | 1016.5 |
| 20260509204704 | 55 | 90 | 1.7 | 5.2 | 0.00 | 0.00 | 0.00 | 75 | 1016.6 |
| 20260509204603 | 55 | 88 | 1.7 | 5.2 | 0.00 | 0.00 | 0.00 | 75 | 1016.5 |
| 20260509204503 | 55 | 77 | 1.7 | 5.2 | 0.00 | 0.00 | 0.00 | 75 | 1016.5 |
| 20260509204403 | 55 | 86 | 0.9 | 3.5 | 0.00 | 0.00 | 0.00 | 75 | 1016.6 |
| 20260509204304 | 55 | 80 | 0.9 | 3.5 | 0.00 | 0.00 | 0.00 | 75 | 1016.7 |
| 20260509204203 | 55 | 75 | 0.9 | 3.5 | 0.00 | 0.00 | 0.00 | 75 | 1016.6 |
| 20260509204103 | 55 | 76 | 0.9 | 3.5 | 0.00 | 0.00 | 0.00 | 75 | 1016.7 |
| 20260509204003 | 55 | 83 | 0.9 | 3.5 | 0.00 | 0.00 | 0.00 | 75 | 1016.7 |
| 20260509203903 | 55 | 77 | 0.9 | 3.5 | 0.00 | 0.00 | 0.00 | 75 | 1016.7 |
| 20260509203803 | 55 | 73 | 0.9 | 3.5 | 0.00 | 0.00 | 0.00 | 75 | 1016.6 |
| 20260509203714 | 55 | 73 | 0.9 | 3.5 | 0.00 | 0.00 | 0.00 | 75 | 1016.6 |
| 20260509203703 | 55 | 62 | 0.9 | 3.5 | 0.00 | 0.00 | 0.00 | 76 | 1016.4 |
| 20260509203604 | 55 | 58 | 0.9 | 3.5 | 0.00 | 0.00 | 0.00 | 76 | 1016.6 |
| 20260509203516 | 55 | 58 | 0.9 | 3.5 | 0.00 | 0.00 | 0.00 | 76 | 1016.6 |
| 20260509203403 | 55 | 77 | 0.9 | 3.5 | 0.00 | 0.00 | 0.00 | 76 | 1016.5 |
| 20260509203203 | 55 | 75 | 0.9 | 5.2 | 0.00 | 0.00 | 0.00 | 76 | 1016.6 |
| 20260509203104 | 55 | 75 | 0.9 | 5.2 | 0.00 | 0.00 | 0.00 | 76 | 1016.7 |
| 20260509203014 | 55 | 75 | 0.9 | 5.2 | 0.00 | 0.00 | 0.00 | 76 | 1016.7 |
| 20260509203004 | 55 | 63 | 0.9 | 5.2 | 0.00 | 0.00 | 0.00 | 76 | 1016.7 |
| 20260509202904 | 55 | 64 | 0.9 | 5.2 | 0.00 | 0.00 | 0.00 | 76 | 1016.7 |
| 20260509202703 | 55 | 69 | 0.9 | 5.2 | 0.00 | 0.00 | 0.00 | 76 | 1016.9 |
| 20260509202613 | 55 | 69 | 0.9 | 5.2 | 0.00 | 0.00 | 0.00 | 76 | 1016.9 |
| 20260509202603 | 55 | 75 | 0.9 | 6.1 | 0.00 | 0.00 | 0.00 | 76 | 1016.6 |
| 20260509202503 | 55 | 71 | 0.9 | 6.1 | 0.00 | 0.00 | 0.00 | 77 | 1016.6 |
| 20260509202314 | 55 | 77 | 0.9 | 6.1 | 0.00 | 0.00 | 0.00 | 77 | 1016.7 |
| 20260509202306 | 55 | 73 | 1.7 | 6.1 | 0.00 | 0.00 | 0.00 | 76 | 1016.6 |
| 20260509202203 | 55 | 78 | 1.7 | 6.1 | 0.00 | 0.00 | 0.00 | 76 | 1016.7 |
| 20260509202004 | 55 | 75 | 1.7 | 6.1 | 0.00 | 0.00 | 0.00 | 76 | 1016.6 |
| 20260509201903 | 55 | 81 | 1.7 | 6.1 | 0.00 | 0.00 | 0.00 | 76 | 1016.6 |
| 20260509201803 | 55 | 88 | 0.9 | 6.1 | 0.00 | 0.00 | 0.00 | 76 | 1016.6 |
| 20260509201703 | 55 | 86 | 0.9 | 6.1 | 0.00 | 0.00 | 0.00 | 76 | 1016.9 |
| 20260509201604 | 55 | 89 | 0.9 | 6.1 | 0.00 | 0.00 | 0.00 | 77 | 1016.9 |
| 20260509201503 | 55 | 101 | 0.9 | 5.2 | 0.00 | 0.00 | 0.00 | 76 | 1016.5 |
| 20260509201404 | 55 | 99 | 0.9 | 5.2 | 0.00 | 0.00 | 0.00 | 76 | 1016.6 |
| 20260509201320 | 55 | 99 | 0.9 | 5.2 | 0.00 | 0.00 | 0.00 | 76 | 1016.6 |
| 20260509201303 | 55 | 130 | 0.9 | 5.2 | 0.00 | 0.00 | 0.00 | 76 | 1016.5 |
| 20260509201214 | 55 | 130 | 0.9 | 5.2 | 0.00 | 0.00 | 0.00 | 76 | 1016.5 |
| 20260509201203 | 55 | 120 | 0.9 | 5.2 | 0.00 | 0.00 | 0.00 | 76 | 1016.5 |
| 20260509201016 | 55 | 141 | 0.9 | 5.2 | 0.00 | 0.00 | 0.00 | 76 | 1016.6 |
| 20260509200903 | 55 | 149 | 0.9 | 5.2 | 0.00 | 0.00 | 0.00 | 76 | 1016.4 |
| 20260509200716 | 55 | 164 | 0.9 | 5.2 | 0.00 | 0.00 | 0.00 | 76 | 1016.5 |
| 20260509200704 | 55 | 170 | 0.9 | 5.2 | 0.00 | 0.00 | 0.00 | 76 | 1016.5 |
| 20260509200603 | 55 | 176 | 0.9 | 5.2 | 0.00 | 0.00 | 0.00 | 76 | 1016.6 |
| 20260509200403 | 55 | 161 | 0.9 | 5.2 | 0.00 | 0.00 | 0.00 | 76 | 1016.5 |
| 20260509200303 | 55 | 143 | 0.9 | 5.2 | 0.00 | 0.00 | 0.00 | 76 | 1016.5 |
| 20260509200215 | 55 | 143 | 0.9 | 5.2 | 0.00 | 0.00 | 0.00 | 76 | 1016.5 |
| 20260509200204 | 55 | 160 | 0.9 | 3.5 | 0.00 | 0.00 | 0.00 | 76 | 1016.4 |
| 20260509200103 | 55 | 152 | 0.9 | 3.5 | 0.00 | 0.00 | 0.00 | 76 | 1016.3 |
| 20260509195903 | 55 | 129 | 0.9 | 3.5 | 0.00 | 0.00 | 0.00 | 76 | 1016.2 |
| 20260509195804 | 55 | 118 | 0.9 | 3.5 | 0.00 | 0.00 | 0.00 | 76 | 1016.4 |
| 20260509195703 | 55 | 117 | 0.9 | 3.5 | 0.00 | 0.00 | 0.00 | 76 | 1016.4 |
| 20260509195603 | 55 | 112 | 0.9 | 3.5 | 0.00 | 0.00 | 0.00 | 76 | 1016.3 |
| 20260509195503 | 55 | 115 | 0.9 | 3.5 | 0.00 | 0.00 | 0.00 | 77 | 1016.3 |
| 20260509195403 | 55 | 118 | 0.9 | 3.5 | 0.00 | 0.00 | 0.00 | 77 | 1016.2 |
| 20260509195306 | 55 | 117 | 0.9 | 3.5 | 0.00 | 0.00 | 0.00 | 77 | 1016.4 |
| 20260509195203 | 55 | 112 | 0.9 | 3.5 | 0.00 | 0.00 | 0.00 | 77 | 1016.5 |
| 20260509195103 | 55 | 110 | 1.7 | 3.5 | 0.00 | 0.00 | 0.00 | 77 | 1016.2 |
| 20260509195013 | 55 | 110 | 1.7 | 3.5 | 0.00 | 0.00 | 0.00 | 77 | 1016.2 |
| 20260509195003 | 55 | 119 | 0.9 | 3.5 | 0.00 | 0.00 | 0.00 | 77 | 1016.4 |
| 20260509194903 | 55 | 118 | 0.9 | 2.6 | 0.00 | 0.00 | 0.00 | 77 | 1016.3 |
| 20260509194703 | 55 | 93 | 0.9 | 3.5 | 0.00 | 0.00 | 0.00 | 77 | 1016.4 |
| 20260509194603 | 55 | 74 | 0.9 | 3.5 | 0.00 | 0.00 | 0.00 | 77 | 1016.3 |
| 20260509194503 | 55 | 34 | 0.9 | 3.5 | 0.00 | 0.00 | 0.00 | 77 | 1016.2 |
| 20260509194403 | 55 | 7 | 0.9 | 3.5 | 0.00 | 0.00 | 0.00 | 77 | 1016.2 |
| 20260509194303 | 55 | 354 | 0.9 | 3.5 | 0.00 | 0.00 | 0.00 | 77 | 1016.3 |
| 20260509194216 | 55 | 354 | 0.9 | 3.5 | 0.00 | 0.00 | 0.00 | 77 | 1016.3 |
| 20260509194203 | 55 | 7 | 0.9 | 3.5 | 0.00 | 0.00 | 0.00 | 77 | 1016.4 |
| 20260509194103 | 55 | 357 | 0.9 | 3.5 | 0.00 | 0.00 | 0.00 | 77 | 1016.3 |
| 20260509193903 | 55 | 360 | 1.7 | 3.5 | 0.00 | 0.00 | 0.00 | 77 | 1016.3 |
| 20260509193803 | 55 | 359 | 0.9 | 3.5 | 0.00 | 0.00 | 0.00 | 77 | 1016.4 |
| 20260509193703 | 55 | 8 | 0.9 | 3.5 | 0.00 | 0.00 | 0.00 | 77 | 1016.4 |
| 20260509193613 | 55 | 8 | 0.9 | 3.5 | 0.00 | 0.00 | 0.00 | 77 | 1016.4 |
| 20260509193603 | 55 | 360 | 0.9 | 3.5 | 0.00 | 0.00 | 0.00 | 77 | 1016.3 |
| 20260509193503 | 56 | 1 | 0.9 | 3.5 | 0.00 | 0.00 | 0.00 | 77 | 1016.1 |
| 20260509193314 | 56 | 2 | 0.9 | 3.5 | 0.00 | 0.00 | 0.00 | 77 | 1016.2 |
| 20260509193304 | 56 | 16 | 0.9 | 3.5 | 0.00 | 0.00 | 0.00 | 77 | 1016.4 |
| 20260509193206 | 56 | 14 | 0.9 | 5.2 | 0.00 | 0.00 | 0.00 | 77 | 1016.4 |
| 20260509193116 | 56 | 14 | 0.9 | 5.2 | 0.00 | 0.00 | 0.00 | 77 | 1016.4 |
| 20260509193003 | 56 | 32 | 0.9 | 5.2 | 0.00 | 0.00 | 0.00 | 76 | 1016.3 |
| 20260509192803 | 56 | 13 | 0.9 | 5.2 | 0.00 | 0.00 | 0.00 | 76 | 1016.4 |
| 20260509192703 | 56 | 360 | 0.9 | 5.2 | 0.00 | 0.00 | 0.00 | 76 | 1016.3 |
| 20260509192603 | 56 | 356 | 1.7 | 6.1 | 0.00 | 0.00 | 0.00 | 76 | 1016.4 |
| 20260509192512 | 56 | 356 | 1.7 | 6.1 | 0.00 | 0.00 | 0.00 | 76 | 1016.4 |
| 20260509192503 | 56 | 355 | 1.7 | 6.1 | 0.00 | 0.00 | 0.00 | 76 | 1016.3 |
| 20260509192403 | 56 | 351 | 1.7 | 6.1 | 0.00 | 0.00 | 0.00 | 76 | 1016.3 |
| 20260509192203 | 56 | 327 | 1.7 | 6.1 | 0.00 | 0.00 | 0.00 | 76 | 1016.2 |
| 20260509192103 | 56 | 324 | 1.7 | 6.1 | 0.00 | 0.00 | 0.00 | 76 | 1016.2 |
| 20260509192003 | 56 | 320 | 1.7 | 6.1 | 0.00 | 0.00 | 0.00 | 76 | 1016.2 |
| 20260509191903 | 56 | 323 | 1.7 | 6.1 | 0.00 | 0.00 | 0.00 | 76 | 1016.3 |
| 20260509191803 | 56 | 329 | 1.7 | 6.1 | 0.00 | 0.00 | 0.00 | 75 | 1016.2 |
| 20260509191703 | 56 | 341 | 1.7 | 6.1 | 0.00 | 0.00 | 0.00 | 75 | 1016.1 |
| 20260509191615 | 56 | 341 | 1.7 | 6.1 | 0.00 | 0.00 | 0.00 | 75 | 1016.1 |
| 20260509191603 | 56 | 337 | 1.7 | 6.1 | 0.00 | 0.00 | 0.00 | 75 | 1016.2 |
| 20260509191503 | 56 | 354 | 0.9 | 6.1 | 0.00 | 0.00 | 0.00 | 75 | 1016.2 |
| 20260509191303 | 56 | 91 | 0.9 | 6.1 | 0.00 | 0.00 | 0.00 | 74 | 1015.9 |
| 20260509191203 | 56 | 94 | 1.7 | 6.1 | 0.00 | 0.00 | 0.00 | 74 | 1016.3 |
| 20260509191103 | 56 | 90 | 1.7 | 6.1 | 0.00 | 0.00 | 0.00 | 74 | 1015.9 |
| 20260509191004 | 56 | 103 | 1.7 | 6.1 | 0.00 | 0.00 | 0.00 | 74 | 1016.2 |
| 20260509190903 | 57 | 99 | 1.7 | 6.1 | 0.00 | 0.00 | 0.00 | 74 | 1016.0 |
| 20260509190813 | 57 | 99 | 1.7 | 6.1 | 0.00 | 0.00 | 0.00 | 74 | 1016.0 |
| 20260509190804 | 57 | 95 | 1.7 | 6.1 | 0.00 | 0.00 | 0.00 | 74 | 1016.0 |
| 20260509190703 | 57 | 89 | 1.7 | 6.1 | 0.00 | 0.00 | 0.00 | 73 | 1016.1 |
| 20260509190616 | 57 | 89 | 1.7 | 6.1 | 0.00 | 0.00 | 0.00 | 73 | 1016.1 |
| 20260509190503 | 57 | 70 | 1.7 | 6.1 | 0.00 | 0.00 | 0.00 | 73 | 1016.0 |
| 20260509190317 | 57 | 73 | 1.7 | 6.1 | 0.00 | 0.00 | 0.00 | 73 | 1016.0 |
| 20260509190303 | 57 | 78 | 1.7 | 6.1 | 0.00 | 0.00 | 0.00 | 72 | 1016.1 |
| 20260509190203 | 57 | 70 | 1.7 | 6.1 | 0.00 | 0.00 | 0.00 | 72 | 1015.9 |
| 20260509190003 | 57 | 60 | 0.9 | 3.5 | 0.00 | 0.00 | 0.00 | 70 | 1016.2 |
| 20260509185903 | 57 | 82 | 0.9 | 3.5 | 0.00 | 0.00 | 0.00 | 70 | 1016.1 |
| 20260509185803 | 57 | 83 | 0.9 | 3.5 | 0.00 | 0.00 | 0.00 | 69 | 1016.2 |
| 20260509185703 | 57 | 89 | 0.9 | 3.5 | 0.00 | 0.00 | 0.00 | 68 | 1016.0 |
| 20260509185603 | 57 | 94 | 0.9 | 3.5 | 0.00 | 0.00 | 0.00 | 67 | 1016.0 |
| 20260509185515 | 57 | 94 | 0.9 | 3.5 | 0.00 | 0.00 | 0.00 | 67 | 1016.0 |
| 20260509185503 | 57 | 103 | 0.9 | 3.5 | 0.00 | 0.00 | 0.00 | 67 | 1016.0 |
| 20260509185403 | 57 | 98 | 0.9 | 3.5 | 0.00 | 0.00 | 0.00 | 66 | 1016.0 |
| 20260509185203 | 57 | 112 | 0.9 | 3.5 | 0.00 | 0.00 | 0.00 | 66 | 1016.1 |
| 20260509185103 | 57 | 101 | 0.9 | 3.5 | 0.00 | 0.00 | 0.00 | 66 | 1016.1 |
| 20260509185003 | 57 | 97 | 0.9 | 3.5 | 0.00 | 0.00 | 0.00 | 66 | 1016.1 |
| 20260509184917 | 57 | 97 | 0.9 | 3.5 | 0.00 | 0.00 | 0.00 | 66 | 1016.1 |
| 20260509184903 | 57 | 130 | 0.9 | 3.5 | 0.00 | 0.00 | 0.00 | 65 | 1016.1 |
| 20260509184803 | 57 | 153 | 0.9 | 3.5 | 0.00 | 0.00 | 0.00 | 65 | 1016.1 |
| 20260509184613 | 57 | 153 | 0.9 | 3.5 | 0.00 | 0.00 | 0.00 | 65 | 1016.0 |
| 20260509184603 | 57 | 165 | 0.9 | 3.5 | 0.00 | 0.00 | 0.00 | 65 | 1016.2 |
| 20260509184503 | 57 | 158 | 0.9 | 3.5 | 0.00 | 0.00 | 0.00 | 65 | 1015.9 |
| 20260509184303 | 57 | 165 | 0.9 | 3.5 | 0.00 | 0.00 | 0.00 | 65 | 1016.3 |
| 20260509184203 | 57 | 155 | 0.9 | 3.5 | 0.00 | 0.00 | 0.00 | 65 | 1016.2 |
| 20260509184103 | 57 | 155 | 0.9 | 3.5 | 0.00 | 0.00 | 0.00 | 65 | 1016.1 |
| 20260509184003 | 57 | 175 | 0.9 | 3.5 | 0.00 | 0.00 | 0.00 | 65 | 1016.2 |
| 20260509183903 | 57 | 159 | 0.9 | 3.5 | 0.00 | 0.00 | 0.00 | 65 | 1016.2 |
| 20260509183803 | 57 | 166 | 0.9 | 3.5 | 0.00 | 0.00 | 0.00 | 65 | 1016.0 |
| 20260509183703 | 57 | 151 | 0.9 | 3.5 | 0.00 | 0.00 | 0.00 | 65 | 1016.1 |
| 20260509183603 | 57 | 157 | 0.9 | 3.5 | 0.00 | 0.00 | 0.00 | 64 | 1016.1 |
| 20260509183512 | 57 | 157 | 0.9 | 3.5 | 0.00 | 0.00 | 0.00 | 64 | 1016.1 |
| 20260509183503 | 57 | 169 | 0.9 | 3.5 | 0.00 | 0.00 | 0.00 | 64 | 1016.1 |
| 20260509183403 | 57 | 197 | 0.9 | 3.5 | 0.00 | 0.00 | 0.00 | 64 | 1016.1 |
| 20260509183213 | 57 | 172 | 0.9 | 3.5 | 0.00 | 0.00 | 0.00 | 64 | 1016.1 |
| 20260509183203 | 57 | 151 | 0.9 | 3.5 | 0.00 | 0.00 | 0.00 | 64 | 1016.0 |
| 20260509183103 | 57 | 104 | 0.9 | 3.5 | 0.00 | 0.00 | 0.00 | 64 | 1016.1 |
| 20260509182903 | 58 | 17 | 0.9 | 3.5 | 0.00 | 0.00 | 0.00 | 64 | 1016.1 |
| 20260509182803 | 58 | 17 | 0.9 | 3.5 | 0.00 | 0.00 | 0.00 | 64 | 1015.9 |
| 20260509182703 | 58 | 12 | 0.9 | 3.5 | 0.00 | 0.00 | 0.00 | 64 | 1016.1 |
| 20260509182604 | 58 | 19 | 0.9 | 3.5 | 0.00 | 0.00 | 0.00 | 64 | 1016.1 |
| 20260509182513 | 58 | 19 | 0.9 | 3.5 | 0.00 | 0.00 | 0.00 | 64 | 1016.1 |
| 20260509182503 | 58 | 40 | 0.9 | 3.5 | 0.00 | 0.00 | 0.00 | 64 | 1016.1 |
| 20260509182403 | 58 | 42 | 0.9 | 3.5 | 0.00 | 0.00 | 0.00 | 64 | 1016.1 |
| 20260509182203 | 58 | 281 | 0.9 | 3.5 | 0.00 | 0.00 | 0.00 | 64 | 1016.1 |
| 20260509182103 | 58 | 218 | 0.9 | 6.1 | 0.00 | 0.00 | 0.00 | 64 | 1016.0 |
| 20260509182003 | 58 | 208 | 0.9 | 6.1 | 0.00 | 0.00 | 0.00 | 64 | 1016.0 |
| 20260509181903 | 58 | 177 | 0.9 | 6.1 | 0.00 | 0.00 | 0.00 | 64 | 1016.0 |
| 20260509181803 | 58 | 176 | 0.9 | 6.1 | 0.00 | 0.00 | 0.00 | 64 | 1015.9 |
| 20260509181717 | 58 | 176 | 0.9 | 6.1 | 0.00 | 0.00 | 0.00 | 64 | 1015.9 |
| 20260509181703 | 58 | 177 | 1.7 | 6.1 | 0.00 | 0.00 | 0.00 | 64 | 1015.9 |
| 20260509181603 | 58 | 174 | 1.7 | 6.1 | 0.00 | 0.00 | 0.00 | 64 | 1015.9 |
| 20260509181403 | 58 | 153 | 1.7 | 6.1 | 0.00 | 0.00 | 0.00 | 64 | 1015.8 |
| 20260509181316 | 58 | 153 | 1.7 | 6.1 | 0.00 | 0.00 | 0.00 | 64 | 1015.8 |
| 20260509181303 | 58 | 130 | 1.7 | 6.1 | 0.00 | 0.00 | 0.00 | 64 | 1015.9 |
| 20260509181203 | 58 | 134 | 1.7 | 6.1 | 0.00 | 0.00 | 0.00 | 64 | 1016.0 |
| 20260509181003 | 58 | 98 | 1.7 | 6.1 | 0.00 | 0.00 | 0.00 | 64 | 1016.0 |
| 20260509180903 | 58 | 79 | 1.7 | 5.2 | 0.00 | 0.00 | 0.00 | 64 | 1016.0 |
| 20260509180804 | 58 | 87 | 1.7 | 5.2 | 0.00 | 0.00 | 0.00 | 65 | 1015.9 |
| 20260509180713 | 58 | 87 | 1.7 | 5.2 | 0.00 | 0.00 | 0.00 | 65 | 1015.9 |
| 20260509180704 | 58 | 89 | 1.7 | 5.2 | 0.00 | 0.00 | 0.00 | 65 | 1015.9 |
| 20260509180603 | 58 | 71 | 1.7 | 5.2 | 0.00 | 0.00 | 0.00 | 65 | 1015.9 |
| 20260509180403 | 58 | 41 | 0.9 | 5.2 | 0.00 | 0.00 | 0.00 | 64 | 1016.0 |
| 20260509180303 | 58 | 23 | 0.9 | 5.2 | 0.00 | 0.00 | 0.00 | 64 | 1016.0 |
| 20260509180203 | 58 | 53 | 0.9 | 7.8 | 0.00 | 0.00 | 0.00 | 64 | 1015.9 |
| 20260509180103 | 58 | 70 | 1.7 | 7.8 | 0.00 | 0.00 | 0.00 | 63 | 1015.9 |
| 20260509180003 | 58 | 87 | 1.7 | 7.8 | 0.00 | 0.00 | 0.00 | 63 | 1016.0 |
| 20260509175903 | 58 | 101 | 1.7 | 7.8 | 0.00 | 0.00 | 0.00 | 63 | 1015.8 |
| 20260509175803 | 58 | 97 | 1.7 | 7.8 | 0.00 | 0.00 | 0.00 | 63 | 1016.0 |
| 20260509175703 | 58 | 83 | 1.7 | 7.8 | 0.00 | 0.00 | 0.00 | 64 | 1016.0 |
| 20260509175604 | 58 | 75 | 1.7 | 7.8 | 0.00 | 0.00 | 0.00 | 63 | 1016.0 |
| 20260509175503 | 58 | 76 | 1.7 | 7.8 | 0.00 | 0.00 | 0.00 | 63 | 1015.9 |
| 20260509175414 | 58 | 76 | 1.7 | 7.8 | 0.00 | 0.00 | 0.00 | 63 | 1015.9 |
| 20260509175403 | 58 | 85 | 1.7 | 7.8 | 0.00 | 0.00 | 0.00 | 64 | 1015.9 |
| 20260509175313 | 58 | 85 | 1.7 | 7.8 | 0.00 | 0.00 | 0.00 | 64 | 1015.9 |
| 20260509175306 | 58 | 75 | 1.7 | 7.8 | 0.00 | 0.00 | 0.00 | 64 | 1016.0 |
| 20260509175003 | 58 | 66 | 1.7 | 6.1 | 0.00 | 0.00 | 0.00 | 65 | 1015.9 |
| 20260509174904 | 58 | 83 | 1.7 | 6.1 | 0.00 | 0.00 | 0.00 | 65 | 1015.8 |
| 20260509174803 | 58 | 50 | 1.7 | 6.1 | 0.00 | 0.00 | 0.00 | 65 | 1015.9 |
| 20260509174704 | 58 | 80 | 1.7 | 6.1 | 0.00 | 0.00 | 0.00 | 65 | 1015.8 |
| 20260509174603 | 58 | 90 | 1.7 | 6.1 | 0.00 | 0.00 | 0.00 | 65 | 1015.9 |
| 20260509174517 | 58 | 90 | 1.7 | 6.1 | 0.00 | 0.00 | 0.00 | 65 | 1015.9 |
| 20260509174503 | 58 | 110 | 1.7 | 6.1 | 0.00 | 0.00 | 0.00 | 65 | 1015.8 |
| 20260509174415 | 58 | 110 | 1.7 | 6.1 | 0.00 | 0.00 | 0.00 | 65 | 1015.8 |
| 20260509174403 | 58 | 114 | 1.7 | 5.2 | 0.00 | 0.00 | 0.00 | 65 | 1015.7 |
| 20260509174104 | 58 | 216 | 1.7 | 5.2 | 0.00 | 0.00 | 0.00 | 65 | 1015.7 |
| 20260509174003 | 58 | 139 | 1.7 | 5.2 | 0.00 | 0.00 | 0.00 | 65 | 1015.9 |
| 20260509173903 | 58 | 81 | 1.7 | 5.2 | 0.00 | 0.00 | 0.00 | 65 | 1015.9 |
| 20260509173803 | 58 | 113 | 1.7 | 7.8 | 0.00 | 0.00 | 0.00 | 65 | 1015.8 |
| 20260509173703 | 58 | 66 | 1.7 | 7.8 | 0.00 | 0.00 | 0.00 | 65 | 1015.7 |
| 20260509173603 | 58 | 84 | 1.7 | 7.8 | 0.00 | 0.00 | 0.00 | 64 | 1015.8 |
| 20260509173504 | 58 | 88 | 1.7 | 7.8 | 0.00 | 0.00 | 0.00 | 64 | 1016.0 |
| 20260509173403 | 58 | 10 | 1.7 | 7.8 | 0.00 | 0.00 | 0.00 | 64 | 1015.7 |
| 20260509173303 | 58 | 20 | 1.7 | 7.8 | 0.00 | 0.00 | 0.00 | 64 | 1015.9 |
| 20260509173203 | 58 | 26 | 1.7 | 7.8 | 0.00 | 0.00 | 0.00 | 64 | 1015.8 |
| 20260509173103 | 58 | 13 | 1.7 | 7.8 | 0.00 | 0.00 | 0.00 | 65 | 1015.7 |
| 20260509173003 | 58 | 24 | 1.7 | 7.8 | 0.00 | 0.00 | 0.00 | 65 | 1015.7 |
| 20260509172904 | 58 | 338 | 1.7 | 7.8 | 0.00 | 0.00 | 0.00 | 65 | 1015.7 |
| 20260509172803 | 58 | 311 | 1.7 | 7.8 | 0.00 | 0.00 | 0.00 | 65 | 1015.8 |
| 20260509172716 | 58 | 311 | 1.7 | 7.8 | 0.00 | 0.00 | 0.00 | 65 | 1015.8 |
| 20260509172703 | 58 | 271 | 1.7 | 7.8 | 0.00 | 0.00 | 0.00 | 65 | 1015.7 |
| 20260509172604 | 58 | 274 | 1.7 | 7.0 | 0.00 | 0.00 | 0.00 | 65 | 1015.9 |
| 20260509172403 | 58 | 268 | 1.7 | 7.0 | 0.00 | 0.00 | 0.00 | 65 | 1015.7 |
| 20260509172306 | 58 | 255 | 1.7 | 7.0 | 0.00 | 0.00 | 0.00 | 65 | 1015.9 |
| 20260509172203 | 59 | 303 | 1.7 | 6.1 | 0.00 | 0.00 | 0.00 | 65 | 1015.8 |
| 20260509172103 | 59 | 333 | 1.7 | 6.1 | 0.00 | 0.00 | 0.00 | 65 | 1015.8 |
| 20260509172004 | 59 | 335 | 1.7 | 6.1 | 0.00 | 0.00 | 0.00 | 65 | 1015.7 |
| 20260509171903 | 59 | 280 | 1.7 | 6.1 | 0.00 | 0.00 | 0.00 | 65 | 1015.7 |
| 20260509171803 | 59 | 128 | 1.7 | 6.1 | 0.00 | 0.00 | 0.00 | 65 | 1016.0 |
| 20260509171704 | 59 | 114 | 1.7 | 6.1 | 0.00 | 0.00 | 0.00 | 65 | 1015.8 |
| 20260509171603 | 59 | 114 | 1.7 | 6.1 | 0.00 | 0.00 | 0.00 | 65 | 1015.8 |
| 20260509171503 | 59 | 129 | 1.7 | 6.1 | 0.00 | 0.00 | 0.00 | 65 | 1015.9 |
| 20260509171303 | 59 | 98 | 1.7 | 6.1 | 0.00 | 0.00 | 0.00 | 64 | 1015.9 |
| 20260509171203 | 59 | 107 | 1.7 | 6.1 | 0.00 | 0.00 | 0.00 | 64 | 1015.8 |
| 20260509171103 | 59 | 112 | 1.7 | 6.1 | 0.00 | 0.00 | 0.00 | 64 | 1015.9 |
| 20260509171012 | 59 | 112 | 1.7 | 6.1 | 0.00 | 0.00 | 0.00 | 64 | 1015.9 |
| 20260509171003 | 59 | 92 | 1.7 | 6.1 | 0.00 | 0.00 | 0.00 | 63 | 1015.9 |
| 20260509170903 | 59 | 96 | 1.7 | 6.1 | 0.00 | 0.00 | 0.00 | 63 | 1015.9 |
| 20260509170815 | 59 | 96 | 1.7 | 6.1 | 0.00 | 0.00 | 0.00 | 63 | 1015.9 |
| 20260509170703 | 59 | 78 | 1.7 | 6.1 | 0.00 | 0.00 | 0.00 | 64 | 1015.9 |
| 20260509170503 | 59 | 58 | 1.7 | 6.1 | 0.00 | 0.00 | 0.00 | 64 | 1016.1 |
| 20260509170403 | 59 | 73 | 1.7 | 6.1 | 0.00 | 0.00 | 0.00 | 64 | 1015.9 |
| 20260509170303 | 59 | 106 | 1.7 | 6.1 | 0.00 | 0.00 | 0.00 | 64 | 1016.1 |
| 20260509170203 | 59 | 107 | 1.7 | 6.1 | 0.00 | 0.00 | 0.00 | 64 | 1015.9 |
| 20260509170003 | 59 | 138 | 1.7 | 5.2 | 0.00 | 0.00 | 0.00 | 64 | 1016.1 |
| 20260509165904 | 59 | 112 | 1.7 | 5.2 | 0.00 | 0.00 | 0.00 | 64 | 1016.2 |
| 20260509165803 | 59 | 118 | 1.7 | 5.2 | 0.00 | 0.00 | 0.00 | 64 | 1016.1 |
| 20260509165714 | 59 | 118 | 1.7 | 5.2 | 0.00 | 0.00 | 0.00 | 64 | 1016.1 |
| 20260509165703 | 59 | 110 | 1.7 | 5.2 | 0.00 | 0.00 | 0.00 | 64 | 1015.9 |
| 20260509165604 | 59 | 107 | 1.7 | 5.2 | 0.00 | 0.00 | 0.00 | 64 | 1016.0 |
| 20260509165403 | 59 | 104 | 1.7 | 5.2 | 0.00 | 0.00 | 0.00 | 65 | 1016.1 |
| 20260509165306 | 59 | 94 | 1.7 | 5.2 | 0.00 | 0.00 | 0.00 | 65 | 1016.1 |
| 20260509165203 | 59 | 75 | 1.7 | 5.2 | 0.00 | 0.00 | 0.00 | 65 | 1016.1 |
| 20260509165116 | 59 | 75 | 1.7 | 5.2 | 0.00 | 0.00 | 0.00 | 65 | 1016.1 |
| 20260509165103 | 59 | 95 | 1.7 | 5.2 | 0.00 | 0.00 | 0.00 | 65 | 1016.1 |
| 20260509165003 | 59 | 78 | 1.7 | 5.2 | 0.00 | 0.00 | 0.00 | 65 | 1016.0 |
| 20260509164803 | 59 | 87 | 1.7 | 5.2 | 0.00 | 0.00 | 0.00 | 66 | 1016.3 |
| 20260509164703 | 59 | 94 | 1.7 | 5.2 | 0.00 | 0.00 | 0.00 | 66 | 1016.1 |
| 20260509164603 | 59 | 182 | 0.9 | 7.0 | 0.00 | 0.00 | 0.00 | 66 | 1016.1 |
| 20260509164503 | 59 | 159 | 1.7 | 7.0 | 0.00 | 0.00 | 0.00 | 66 | 1016.1 |
| 20260509164403 | 59 | 193 | 1.7 | 7.0 | 0.00 | 0.00 | 0.00 | 67 | 1016.0 |
| 20260509164303 | 59 | 183 | 1.7 | 7.0 | 0.00 | 0.00 | 0.00 | 67 | 1016.3 |
| 20260509164203 | 59 | 169 | 1.7 | 7.0 | 0.00 | 0.00 | 0.00 | 67 | 1016.1 |
| 20260509164103 | 59 | 154 | 1.7 | 7.0 | 0.00 | 0.00 | 0.00 | 67 | 1016.2 |
| 20260509164015 | 59 | 154 | 1.7 | 7.0 | 0.00 | 0.00 | 0.00 | 67 | 1016.2 |
| 20260509164003 | 59 | 153 | 1.7 | 7.0 | 0.00 | 0.00 | 0.00 | 67 | 1016.1 |
| 20260509163903 | 59 | 149 | 1.7 | 7.0 | 0.00 | 0.00 | 0.00 | 68 | 1015.9 |
| 20260509163703 | 59 | 138 | 1.7 | 7.0 | 0.00 | 0.00 | 0.00 | 68 | 1016.1 |
| 20260509163603 | 59 | 119 | 1.7 | 7.0 | 0.00 | 0.00 | 0.00 | 67 | 1016.2 |
| 20260509163503 | 59 | 90 | 1.7 | 7.0 | 0.00 | 0.00 | 0.00 | 67 | 1016.0 |
| 20260509163403 | 59 | 79 | 1.7 | 6.1 | 0.00 | 0.00 | 0.00 | 67 | 1016.0 |
| 20260509163305 | 59 | 80 | 1.7 | 6.1 | 0.00 | 0.00 | 0.00 | 68 | 1016.3 |
| 20260509163203 | 59 | 72 | 1.7 | 5.2 | 0.00 | 0.00 | 0.00 | 68 | 1015.9 |
| 20260509163103 | 60 | 77 | 1.7 | 5.2 | 0.00 | 0.00 | 0.00 | 68 | 1016.0 |
| 20260509163004 | 60 | 72 | 1.7 | 5.2 | 0.00 | 0.00 | 0.00 | 68 | 1016.4 |
| 20260509162903 | 60 | 70 | 1.7 | 5.2 | 0.00 | 0.00 | 0.00 | 68 | 1016.1 |
| 20260509162803 | 60 | 75 | 1.7 | 5.2 | 0.00 | 0.00 | 0.00 | 68 | 1016.3 |
| 20260509162703 | 60 | 74 | 1.7 | 6.1 | 0.00 | 0.00 | 0.00 | 68 | 1016.2 |
| 20260509162603 | 60 | 81 | 1.7 | 6.1 | 0.00 | 0.00 | 0.00 | 68 | 1016.2 |
| 20260509162503 | 60 | 84 | 1.7 | 6.1 | 0.00 | 0.00 | 0.00 | 68 | 1016.0 |
| 20260509162404 | 60 | 80 | 1.7 | 6.1 | 0.00 | 0.00 | 0.00 | 69 | 1016.1 |
| 20260509162317 | 60 | 80 | 1.7 | 6.1 | 0.00 | 0.00 | 0.00 | 69 | 1016.1 |
| 20260509162307 | 60 | 65 | 1.7 | 6.1 | 0.00 | 0.00 | 0.00 | 69 | 1016.3 |
| 20260509162215 | 60 | 65 | 1.7 | 6.1 | 0.00 | 0.00 | 0.00 | 69 | 1016.3 |
| 20260509162203 | 60 | 63 | 1.7 | 6.1 | 0.00 | 0.00 | 0.00 | 69 | 1016.2 |
| 20260509162114 | 60 | 63 | 1.7 | 6.1 | 0.00 | 0.00 | 0.00 | 69 | 1016.2 |
| 20260509161916 | 60 | 59 | 1.7 | 6.1 | 0.00 | 0.00 | 0.00 | 68 | 1016.3 |
| 20260509161803 | 60 | 62 | 1.7 | 6.1 | 0.00 | 0.00 | 0.00 | 67 | 1016.2 |
| 20260509161603 | 60 | 66 | 1.7 | 6.1 | 0.00 | 0.00 | 0.00 | 67 | 1016.4 |
| 20260509161503 | 60 | 79 | 1.7 | 6.1 | 0.00 | 0.00 | 0.00 | 66 | 1016.2 |
| 20260509161403 | 61 | 92 | 1.7 | 6.1 | 0.00 | 0.00 | 0.00 | 67 | 1016.5 |
| 20260509161303 | 61 | 109 | 1.7 | 6.1 | 0.00 | 0.00 | 0.00 | 67 | 1016.1 |
| 20260509161203 | 61 | 117 | 1.7 | 6.1 | 0.00 | 0.00 | 0.00 | 67 | 1016.4 |
| 20260509161103 | 61 | 130 | 1.7 | 6.1 | 0.00 | 0.00 | 0.00 | 67 | 1016.3 |
| 20260509161003 | 61 | 135 | 1.7 | 6.1 | 0.00 | 0.00 | 0.00 | 67 | 1016.3 |
| 20260509160903 | 61 | 130 | 1.7 | 6.1 | 0.00 | 0.00 | 0.00 | 67 | 1016.3 |
| 20260509160816 | 61 | 130 | 1.7 | 6.1 | 0.00 | 0.00 | 0.00 | 67 | 1016.3 |
| 20260509160803 | 61 | 130 | 1.7 | 6.1 | 0.00 | 0.00 | 0.00 | 67 | 1016.3 |
| 20260509160714 | 61 | 130 | 1.7 | 6.1 | 0.00 | 0.00 | 0.00 | 67 | 1016.3 |
| 20260509160703 | 60 | 102 | 1.7 | 6.1 | 0.00 | 0.00 | 0.00 | 66 | 1016.4 |
| 20260509160613 | 60 | 102 | 1.7 | 6.1 | 0.00 | 0.00 | 0.00 | 66 | 1016.4 |
| 20260509160303 | 61 | 83 | 1.7 | 6.1 | 0.00 | 0.00 | 0.00 | 66 | 1016.3 |
| 20260509160203 | 61 | 89 | 1.7 | 6.1 | 0.00 | 0.00 | 0.00 | 67 | 1016.3 |
| 20260509160103 | 61 | 83 | 1.7 | 6.1 | 0.00 | 0.00 | 0.00 | 67 | 1016.5 |
| 20260509160004 | 61 | 76 | 1.7 | 6.1 | 0.00 | 0.00 | 0.00 | 67 | 1016.3 |
| 20260509155913 | 61 | 76 | 1.7 | 6.1 | 0.00 | 0.00 | 0.00 | 67 | 1016.3 |
| 20260509155903 | 61 | 72 | 1.7 | 6.1 | 0.00 | 0.00 | 0.00 | 68 | 1016.4 |
| 20260509155803 | 61 | 79 | 1.7 | 6.1 | 0.00 | 0.00 | 0.00 | 68 | 1016.4 |
| 20260509155603 | 61 | 78 | 1.7 | 6.1 | 0.00 | 0.00 | 0.00 | 68 | 1016.5 |
| 20260509155503 | 61 | 81 | 1.7 | 6.1 | 0.00 | 0.00 | 0.00 | 67 | 1016.3 |
| 20260509155404 | 61 | 73 | 2.6 | 6.1 | 0.00 | 0.00 | 0.00 | 67 | 1016.4 |
| 20260509155314 | 61 | 73 | 2.6 | 6.1 | 0.00 | 0.00 | 0.00 | 67 | 1016.4 |
| 20260509155306 | 61 | 69 | 2.6 | 6.1 | 0.00 | 0.00 | 0.00 | 67 | 1016.6 |
| 20260509155204 | 61 | 72 | 2.6 | 6.1 | 0.00 | 0.00 | 0.00 | 67 | 1016.6 |
| 20260509155015 | 61 | 78 | 2.6 | 6.1 | 0.00 | 0.00 | 0.00 | 67 | 1016.6 |
| 20260509155003 | 61 | 82 | 2.6 | 6.1 | 0.00 | 0.00 | 0.00 | 67 | 1016.4 |
| 20260509154903 | 61 | 94 | 2.6 | 6.1 | 0.00 | 0.00 | 0.00 | 66 | 1016.6 |
| 20260509154703 | 61 | 105 | 2.6 | 6.1 | 0.00 | 0.00 | 0.00 | 66 | 1016.6 |
| 20260509154603 | 61 | 105 | 2.6 | 7.0 | 0.00 | 0.00 | 0.00 | 65 | 1016.5 |
| 20260509154503 | 61 | 98 | 2.6 | 7.0 | 0.00 | 0.00 | 0.00 | 65 | 1016.6 |
| 20260509154417 | 61 | 98 | 2.6 | 7.0 | 0.00 | 0.00 | 0.00 | 65 | 1016.6 |
| 20260509154403 | 61 | 106 | 2.6 | 7.0 | 0.00 | 0.00 | 0.00 | 65 | 1016.4 |
| 20260509154303 | 61 | 112 | 2.6 | 7.0 | 0.00 | 0.00 | 0.00 | 65 | 1016.5 |
| 20260509154103 | 61 | 103 | 1.7 | 7.0 | 0.00 | 0.00 | 0.00 | 65 | 1016.5 |
| 20260509154003 | 61 | 103 | 1.7 | 7.0 | 0.00 | 0.00 | 0.00 | 65 | 1016.5 |
| 20260509153903 | 61 | 95 | 1.7 | 7.0 | 0.00 | 0.00 | 0.00 | 65 | 1016.5 |
| 20260509153803 | 61 | 94 | 1.7 | 7.0 | 0.00 | 0.00 | 0.00 | 65 | 1016.5 |
| 20260509153703 | 61 | 94 | 1.7 | 7.0 | 0.00 | 0.00 | 0.00 | 65 | 1016.5 |
| 20260509153604 | 61 | 97 | 1.7 | 7.0 | 0.00 | 0.00 | 0.00 | 65 | 1016.8 |
| 20260509153503 | 62 | 100 | 1.7 | 7.0 | 0.00 | 0.00 | 0.00 | 65 | 1016.7 |
| 20260509153403 | 62 | 106 | 1.7 | 5.2 | 0.00 | 0.00 | 0.00 | 66 | 1016.8 |
| 20260509153303 | 62 | 103 | 1.7 | 5.2 | 0.00 | 0.00 | 0.00 | 67 | 1016.7 |
| 20260509153203 | 62 | 97 | 1.7 | 5.2 | 0.00 | 0.00 | 0.00 | 67 | 1016.8 |
| 20260509153104 | 61 | 101 | 1.7 | 5.2 | 0.00 | 0.00 | 0.00 | 67 | 1016.6 |
| 20260509153004 | 61 | 95 | 1.7 | 5.2 | 0.00 | 0.00 | 0.00 | 67 | 1016.7 |
| 20260509152916 | 61 | 95 | 1.7 | 5.2 | 0.00 | 0.00 | 0.00 | 67 | 1016.7 |
| 20260509152903 | 61 | 103 | 1.7 | 6.1 | 0.00 | 0.00 | 0.00 | 67 | 1016.7 |
| 20260509152803 | 61 | 96 | 1.7 | 6.1 | 0.00 | 0.00 | 0.00 | 66 | 1016.8 |
| 20260509152603 | 61 | 116 | 1.7 | 6.1 | 0.00 | 0.00 | 0.00 | 66 | 1016.8 |
| 20260509152503 | 61 | 133 | 1.7 | 7.8 | 0.00 | 0.00 | 0.00 | 66 | 1016.8 |
| 20260509152403 | 61 | 149 | 1.7 | 7.8 | 0.00 | 0.00 | 0.00 | 66 | 1016.9 |
| 20260509152305 | 61 | 142 | 1.7 | 7.8 | 0.00 | 0.00 | 0.00 | 66 | 1016.7 |
| 20260509152203 | 61 | 137 | 1.7 | 7.8 | 0.00 | 0.00 | 0.00 | 66 | 1016.8 |
| 20260509152103 | 61 | 138 | 1.7 | 7.8 | 0.00 | 0.00 | 0.00 | 66 | 1016.8 |
| 20260509152003 | 61 | 156 | 1.7 | 7.8 | 0.00 | 0.00 | 0.00 | 66 | 1016.7 |
| 20260509151903 | 61 | 160 | 1.7 | 7.8 | 0.00 | 0.00 | 0.00 | 66 | 1016.5 |
| 20260509151815 | 61 | 160 | 1.7 | 7.8 | 0.00 | 0.00 | 0.00 | 66 | 1016.5 |
| 20260509151803 | 61 | 150 | 1.7 | 7.8 | 0.00 | 0.00 | 0.00 | 65 | 1016.6 |
| 20260509151704 | 61 | 143 | 1.7 | 7.8 | 0.00 | 0.00 | 0.00 | 65 | 1016.5 |
| 20260509151503 | 61 | 126 | 1.7 | 7.8 | 0.00 | 0.00 | 0.00 | 64 | 1016.4 |
| 20260509151403 | 61 | 95 | 1.7 | 7.0 | 0.00 | 0.00 | 0.00 | 64 | 1016.8 |
| 20260509151303 | 61 | 67 | 2.6 | 7.0 | 0.00 | 0.00 | 0.00 | 64 | 1016.6 |
| 20260509151204 | 61 | 96 | 1.7 | 6.1 | 0.00 | 0.00 | 0.00 | 65 | 1016.6 |
| 20260509151103 | 61 | 91 | 2.6 | 6.1 | 0.00 | 0.00 | 0.00 | 65 | 1016.8 |
| 20260509151004 | 61 | 81 | 2.6 | 6.1 | 0.00 | 0.00 | 0.00 | 66 | 1016.5 |
| 20260509150903 | 61 | 60 | 2.6 | 6.1 | 0.00 | 0.00 | 0.00 | 66 | 1016.6 |
| 20260509150803 | 61 | 64 | 2.6 | 6.1 | 0.00 | 0.00 | 0.00 | 66 | 1016.5 |
| 20260509150703 | 61 | 69 | 2.6 | 6.1 | 0.00 | 0.00 | 0.00 | 66 | 1016.5 |
| 20260509150603 | 61 | 68 | 2.6 | 7.0 | 0.00 | 0.00 | 0.00 | 66 | 1016.6 |
| 20260509150504 | 61 | 79 | 2.6 | 7.0 | 0.00 | 0.00 | 0.00 | 66 | 1016.6 |
| 20260509150404 | 61 | 67 | 2.6 | 7.0 | 0.00 | 0.00 | 0.00 | 66 | 1016.6 |
| 20260509150314 | 61 | 67 | 2.6 | 7.0 | 0.00 | 0.00 | 0.00 | 66 | 1016.6 |
| 20260509150303 | 61 | 83 | 2.6 | 7.0 | 0.00 | 0.00 | 0.00 | 66 | 1016.5 |
| 20260509150203 | 61 | 84 | 2.6 | 7.0 | 0.00 | 0.00 | 0.00 | 66 | 1016.5 |
| 20260509150003 | 61 | 94 | 2.6 | 7.0 | 0.00 | 0.00 | 0.00 | 65 | 1016.5 |
| 20260509145913 | 61 | 94 | 2.6 | 7.0 | 0.00 | 0.00 | 0.00 | 65 | 1016.5 |
| 20260509145904 | 61 | 106 | 2.6 | 7.0 | 0.00 | 0.00 | 0.00 | 65 | 1016.6 |
| 20260509145803 | 61 | 100 | 2.6 | 7.0 | 0.00 | 0.00 | 0.00 | 66 | 1016.7 |
| 20260509145614 | 61 | 113 | 2.6 | 7.0 | 0.00 | 0.00 | 0.00 | 65 | 1016.5 |
| 20260509145603 | 61 | 106 | 2.6 | 7.0 | 0.00 | 0.00 | 0.00 | 65 | 1016.6 |
| 20260509145504 | 61 | 102 | 2.6 | 7.0 | 0.00 | 0.00 | 0.00 | 65 | 1016.4 |
| 20260509145416 | 61 | 102 | 2.6 | 7.0 | 0.00 | 0.00 | 0.00 | 65 | 1016.4 |
| 20260509145315 | 61 | 127 | 2.6 | 8.7 | 0.00 | 0.00 | 0.00 | 65 | 1016.6 |
| 20260509145306 | 61 | 137 | 2.6 | 8.7 | 0.00 | 0.00 | 0.00 | 65 | 1016.4 |
| 20260509145003 | 61 | 134 | 2.6 | 8.7 | 0.00 | 0.00 | 0.00 | 66 | 1016.5 |
| 20260509144903 | 61 | 129 | 2.6 | 8.7 | 0.00 | 0.00 | 0.00 | 65 | 1016.5 |
| 20260509144804 | 61 | 123 | 2.6 | 8.7 | 0.00 | 0.00 | 0.00 | 66 | 1016.5 |
| 20260509144717 | 61 | 123 | 2.6 | 8.7 | 0.00 | 0.00 | 0.00 | 66 | 1016.5 |
| 20260509144703 | 61 | 115 | 2.6 | 8.7 | 0.00 | 0.00 | 0.00 | 65 | 1016.3 |
| 20260509144604 | 61 | 112 | 2.6 | 8.7 | 0.00 | 0.00 | 0.00 | 65 | 1016.4 |
| 20260509144403 | 61 | 104 | 2.6 | 8.7 | 0.00 | 0.00 | 0.00 | 65 | 1016.3 |
| 20260509144304 | 61 | 89 | 2.6 | 8.7 | 0.00 | 0.00 | 0.00 | 64 | 1016.2 |
| 20260509144203 | 61 | 93 | 2.6 | 7.0 | 0.00 | 0.00 | 0.00 | 64 | 1016.5 |
| 20260509144104 | 61 | 89 | 2.6 | 7.0 | 0.00 | 0.00 | 0.00 | 64 | 1016.4 |
| 20260509144003 | 61 | 94 | 2.6 | 7.0 | 0.00 | 0.00 | 0.00 | 65 | 1016.5 |
| 20260509143903 | 61 | 92 | 2.6 | 7.8 | 0.00 | 0.00 | 0.00 | 65 | 1016.5 |
| 20260509143804 | 61 | 91 | 2.6 | 7.8 | 0.00 | 0.00 | 0.00 | 65 | 1016.7 |
| 20260509143703 | 61 | 89 | 2.6 | 7.8 | 0.00 | 0.00 | 0.00 | 65 | 1016.4 |
| 20260509143604 | 61 | 101 | 2.6 | 7.8 | 0.00 | 0.00 | 0.00 | 65 | 1016.4 |
| 20260509143503 | 61 | 80 | 3.5 | 7.8 | 0.00 | 0.00 | 0.00 | 64 | 1016.5 |
| 20260509143404 | 61 | 77 | 3.5 | 7.8 | 0.00 | 0.00 | 0.00 | 64 | 1016.4 |
| 20260509143304 | 61 | 86 | 3.5 | 7.8 | 0.00 | 0.00 | 0.00 | 65 | 1016.3 |
| 20260509143215 | 61 | 86 | 3.5 | 7.8 | 0.00 | 0.00 | 0.00 | 65 | 1016.3 |
| 20260509143203 | 61 | 85 | 3.5 | 7.8 | 0.00 | 0.00 | 0.00 | 66 | 1016.3 |
| 20260509143103 | 61 | 82 | 3.5 | 7.8 | 0.00 | 0.00 | 0.00 | 66 | 1016.3 |
| 20260509142904 | 61 | 78 | 3.5 | 7.8 | 0.00 | 0.00 | 0.00 | 65 | 1016.5 |
| 20260509142815 | 61 | 78 | 3.5 | 7.8 | 0.00 | 0.00 | 0.00 | 65 | 1016.5 |
| 20260509142803 | 61 | 79 | 3.5 | 7.8 | 0.00 | 0.00 | 0.00 | 66 | 1016.3 |
| 20260509142703 | 61 | 86 | 3.5 | 7.8 | 0.00 | 0.00 | 0.00 | 65 | 1016.4 |
| 20260509142516 | 61 | 85 | 3.5 | 7.8 | 0.00 | 0.00 | 0.00 | 66 | 1016.4 |
| 20260509142504 | 61 | 93 | 3.5 | 7.8 | 0.00 | 0.00 | 0.00 | 66 | 1016.3 |
| 20260509142403 | 61 | 106 | 2.6 | 7.8 | 0.00 | 0.00 | 0.00 | 66 | 1016.3 |
| 20260509142203 | 61 | 99 | 2.6 | 7.8 | 0.00 | 0.00 | 0.00 | 66 | 1016.4 |
| 20260509142103 | 61 | 103 | 2.6 | 7.8 | 0.00 | 0.00 | 0.00 | 66 | 1016.5 |
| 20260509142014 | 61 | 103 | 2.6 | 7.8 | 0.00 | 0.00 | 0.00 | 66 | 1016.5 |
| 20260509142003 | 61 | 102 | 2.6 | 7.8 | 0.00 | 0.00 | 0.00 | 66 | 1016.5 |
| 20260509141903 | 61 | 101 | 2.6 | 7.8 | 0.00 | 0.00 | 0.00 | 66 | 1016.6 |
| 20260509141704 | 61 | 84 | 2.6 | 7.8 | 0.00 | 0.00 | 0.00 | 65 | 1016.5 |
| 20260509141603 | 62 | 77 | 1.7 | 7.8 | 0.00 | 0.00 | 0.00 | 65 | 1016.6 |
| 20260509141503 | 62 | 77 | 1.7 | 7.8 | 0.00 | 0.00 | 0.00 | 65 | 1016.3 |
| 20260509141404 | 62 | 88 | 2.6 | 7.8 | 0.00 | 0.00 | 0.00 | 65 | 1016.4 |
| 20260509141303 | 62 | 129 | 1.7 | 7.8 | 0.00 | 0.00 | 0.00 | 65 | 1016.3 |
| 20260509141203 | 62 | 279 | 1.7 | 7.0 | 0.00 | 0.00 | 0.00 | 66 | 1016.2 |
| 20260509141103 | 62 | 5 | 1.7 | 8.7 | 0.00 | 0.00 | 0.00 | 66 | 1016.3 |
| 20260509141004 | 62 | 358 | 1.7 | 8.7 | 0.00 | 0.00 | 0.00 | 66 | 1016.5 |
| 20260509140903 | 62 | 307 | 1.7 | 8.7 | 0.00 | 0.00 | 0.00 | 67 | 1016.2 |
| 20260509140803 | 62 | 295 | 1.7 | 8.7 | 0.00 | 0.00 | 0.00 | 67 | 1016.4 |
| 20260509140703 | 62 | 338 | 1.7 | 8.7 | 0.00 | 0.00 | 0.00 | 67 | 1016.4 |
| 20260509140603 | 62 | 7 | 1.7 | 8.7 | 0.00 | 0.00 | 0.00 | 67 | 1016.4 |
| 20260509140503 | 62 | 14 | 1.7 | 8.7 | 0.00 | 0.00 | 0.00 | 67 | 1016.4 |
| 20260509140403 | 62 | 19 | 1.7 | 8.7 | 0.00 | 0.00 | 0.00 | 67 | 1016.4 |
| 20260509140315 | 62 | 19 | 1.7 | 8.7 | 0.00 | 0.00 | 0.00 | 67 | 1016.4 |
| 20260509140303 | 62 | 20 | 1.7 | 8.7 | 0.00 | 0.00 | 0.00 | 67 | 1016.3 |
| 20260509140203 | 62 | 28 | 1.7 | 8.7 | 0.00 | 0.00 | 0.00 | 67 | 1016.3 |
| 20260509140003 | 62 | 63 | 1.7 | 8.7 | 0.00 | 0.00 | 0.00 | 67 | 1016.3 |
| 20260509135914 | 62 | 63 | 1.7 | 8.7 | 0.00 | 0.00 | 0.00 | 67 | 1016.3 |
| 20260509135904 | 62 | 54 | 1.7 | 6.1 | 0.00 | 0.00 | 0.00 | 67 | 1016.4 |
| 20260509135803 | 62 | 62 | 1.7 | 6.1 | 0.00 | 0.00 | 0.00 | 67 | 1016.4 |
| 20260509135603 | 62 | 61 | 1.7 | 6.1 | 0.00 | 0.00 | 0.00 | 67 | 1016.5 |
| 20260509135503 | 62 | 83 | 2.6 | 6.1 | 0.00 | 0.00 | 0.00 | 67 | 1016.4 |
| 20260509135403 | 62 | 99 | 2.6 | 6.1 | 0.00 | 0.00 | 0.00 | 67 | 1016.4 |
| 20260509135316 | 62 | 99 | 2.6 | 6.1 | 0.00 | 0.00 | 0.00 | 67 | 1016.4 |
| 20260509135305 | 62 | 103 | 2.6 | 6.1 | 0.00 | 0.00 | 0.00 | 68 | 1016.4 |
| 20260509135203 | 62 | 85 | 2.6 | 6.1 | 0.00 | 0.00 | 0.00 | 68 | 1016.3 |
| 20260509135003 | 62 | 61 | 2.6 | 6.1 | 0.00 | 0.00 | 0.00 | 67 | 1016.4 |
| 20260509134903 | 61 | 125 | 2.6 | 7.8 | 0.00 | 0.00 | 0.00 | 67 | 1016.2 |
| 20260509134803 | 62 | 121 | 2.6 | 7.8 | 0.00 | 0.00 | 0.00 | 67 | 1016.4 |
| 20260509134703 | 62 | 132 | 2.6 | 7.8 | 0.00 | 0.00 | 0.00 | 67 | 1016.2 |
| 20260509134603 | 62 | 111 | 2.6 | 7.8 | 0.00 | 0.00 | 0.00 | 67 | 1016.5 |
| 20260509134514 | 62 | 111 | 2.6 | 7.8 | 0.00 | 0.00 | 0.00 | 67 | 1016.5 |
| 20260509134503 | 62 | 90 | 2.6 | 7.8 | 0.00 | 0.00 | 0.00 | 68 | 1016.5 |
| 20260509134403 | 62 | 96 | 2.6 | 7.8 | 0.00 | 0.00 | 0.00 | 68 | 1016.3 |
| 20260509134203 | 61 | 107 | 2.6 | 7.8 | 0.00 | 0.00 | 0.00 | 68 | 1016.4 |
| 20260509134103 | 61 | 109 | 2.6 | 7.8 | 0.00 | 0.00 | 0.00 | 67 | 1016.4 |
| 20260509134003 | 61 | 113 | 2.6 | 7.8 | 0.00 | 0.00 | 0.00 | 67 | 1016.4 |
| 20260509133903 | 62 | 103 | 2.6 | 7.8 | 0.00 | 0.00 | 0.00 | 66 | 1016.4 |
| 20260509133804 | 62 | 101 | 2.6 | 6.1 | 0.00 | 0.00 | 0.00 | 68 | 1016.6 |
| 20260509133703 | 62 | 94 | 2.6 | 6.1 | 0.00 | 0.00 | 0.00 | 67 | 1016.5 |
| 20260509133603 | 62 | 106 | 2.6 | 6.1 | 0.00 | 0.00 | 0.00 | 67 | 1016.5 |
| 20260509133504 | 62 | 108 | 2.6 | 6.1 | 0.00 | 0.00 | 0.00 | 67 | 1016.3 |
| 20260509133403 | 62 | 107 | 2.6 | 6.1 | 0.00 | 0.00 | 0.00 | 67 | 1016.5 |
| 20260509133303 | 62 | 97 | 2.6 | 6.1 | 0.00 | 0.00 | 0.00 | 67 | 1016.6 |
| 20260509133203 | 62 | 120 | 2.6 | 6.1 | 0.00 | 0.00 | 0.00 | 67 | 1016.5 |
| 20260509133103 | 62 | 132 | 2.6 | 6.1 | 0.00 | 0.00 | 0.00 | 66 | 1016.4 |
| 20260509133003 | 62 | 114 | 2.6 | 6.1 | 0.00 | 0.00 | 0.00 | 66 | 1016.5 |
| 20260509132903 | 62 | 134 | 2.6 | 6.1 | 0.00 | 0.00 | 0.00 | 67 | 1016.4 |
| 20260509132804 | 62 | 131 | 2.6 | 6.1 | 0.00 | 0.00 | 0.00 | 67 | 1016.4 |
| 20260509132703 | 62 | 196 | 2.6 | 6.1 | 0.00 | 0.00 | 0.00 | 66 | 1016.5 |
| 20260509132603 | 62 | 181 | 2.6 | 6.1 | 0.00 | 0.00 | 0.00 | 66 | 1016.4 |
| 20260509132504 | 62 | 179 | 1.7 | 6.1 | 0.00 | 0.00 | 0.00 | 66 | 1016.5 |
| 20260509132404 | 62 | 147 | 1.7 | 6.1 | 0.00 | 0.00 | 0.00 | 65 | 1016.4 |
| 20260509132306 | 62 | 133 | 1.7 | 6.1 | 0.00 | 0.00 | 0.00 | 65 | 1016.5 |
| 20260509132203 | 62 | 138 | 2.6 | 6.1 | 0.00 | 0.00 | 0.00 | 65 | 1016.7 |
| 20260509132115 | 62 | 138 | 2.6 | 6.1 | 0.00 | 0.00 | 0.00 | 65 | 1016.7 |
| 20260509132103 | 62 | 130 | 1.7 | 6.1 | 0.00 | 0.00 | 0.00 | 66 | 1016.5 |
| 20260509132003 | 62 | 135 | 1.7 | 6.1 | 0.00 | 0.00 | 0.00 | 65 | 1016.6 |
| 20260509131816 | 62 | 130 | 1.7 | 6.1 | 0.00 | 0.00 | 0.00 | 64 | 1016.6 |
| 20260509131804 | 63 | 139 | 1.7 | 6.1 | 0.00 | 0.00 | 0.00 | 64 | 1016.6 |
| 20260509131703 | 63 | 119 | 2.6 | 6.1 | 0.00 | 0.00 | 0.00 | 64 | 1016.6 |
| 20260509131503 | 63 | 125 | 1.7 | 6.1 | 0.00 | 0.00 | 0.00 | 64 | 1016.5 |
| 20260509131403 | 63 | 123 | 1.7 | 6.1 | 0.00 | 0.00 | 0.00 | 64 | 1016.5 |
| 20260509131303 | 63 | 114 | 1.7 | 5.2 | 0.00 | 0.00 | 0.00 | 64 | 1016.6 |
| 20260509131204 | 63 | 106 | 1.7 | 5.2 | 0.00 | 0.00 | 0.00 | 64 | 1016.6 |
| 20260509131103 | 63 | 117 | 1.7 | 5.2 | 0.00 | 0.00 | 0.00 | 64 | 1016.7 |
| 20260509131003 | 63 | 121 | 1.7 | 5.2 | 0.00 | 0.00 | 0.00 | 64 | 1016.6 |
| 20260509130914 | 63 | 121 | 1.7 | 5.2 | 0.00 | 0.00 | 0.00 | 64 | 1016.6 |
| 20260509130904 | 63 | 115 | 1.7 | 5.2 | 0.00 | 0.00 | 0.00 | 64 | 1016.7 |
| 20260509130812 | 63 | 115 | 1.7 | 5.2 | 0.00 | 0.00 | 0.00 | 64 | 1016.7 |
| 20260509130803 | 63 | 116 | 1.7 | 7.0 | 0.00 | 0.00 | 0.00 | 64 | 1016.7 |
| 20260509130503 | 63 | 115 | 1.7 | 7.0 | 0.00 | 0.00 | 0.00 | 65 | 1016.9 |
| 20260509130404 | 63 | 123 | 1.7 | 7.0 | 0.00 | 0.00 | 0.00 | 65 | 1017.0 |
| 20260509130303 | 63 | 117 | 1.7 | 7.0 | 0.00 | 0.00 | 0.00 | 65 | 1016.8 |
| 20260509130203 | 63 | 107 | 1.7 | 7.0 | 0.00 | 0.00 | 0.00 | 65 | 1016.7 |
| 20260509130003 | 63 | 100 | 1.7 | 7.0 | 0.00 | 0.00 | 0.00 | 66 | 1016.7 |
| 20260509125915 | 63 | 100 | 1.7 | 7.0 | 0.00 | 0.00 | 0.00 | 66 | 1016.7 |
| 20260509125904 | 63 | 107 | 1.7 | 7.0 | 0.00 | 0.00 | 0.00 | 66 | 1016.6 |
| 20260509125803 | 63 | 98 | 1.7 | 7.0 | 0.00 | 0.00 | 0.00 | 66 | 1016.7 |
| 20260509125604 | 63 | 98 | 1.7 | 6.1 | 0.00 | 0.00 | 0.00 | 66 | 1016.6 |
| 20260509125504 | 62 | 104 | 1.7 | 6.1 | 0.00 | 0.00 | 0.00 | 66 | 1016.7 |
| 20260509125412 | 62 | 104 | 1.7 | 6.1 | 0.00 | 0.00 | 0.00 | 66 | 1016.7 |
| 20260509125403 | 62 | 86 | 1.7 | 6.1 | 0.00 | 0.00 | 0.00 | 66 | 1016.9 |
| 20260509125316 | 62 | 86 | 1.7 | 6.1 | 0.00 | 0.00 | 0.00 | 66 | 1016.9 |
| 20260509125307 | 62 | 96 | 1.7 | 6.1 | 0.00 | 0.00 | 0.00 | 66 | 1016.6 |
| 20260509125017 | 62 | 122 | 1.7 | 5.2 | 0.00 | 0.00 | 0.00 | 67 | 1016.8 |
| 20260509125003 | 62 | 104 | 1.7 | 5.2 | 0.00 | 0.00 | 0.00 | 67 | 1016.8 |
| 20260509124903 | 62 | 86 | 1.7 | 5.2 | 0.00 | 0.00 | 0.00 | 67 | 1016.8 |
| 20260509124703 | 62 | 97 | 2.6 | 6.1 | 0.00 | 0.00 | 0.00 | 66 | 1016.6 |
| 20260509124603 | 62 | 92 | 2.6 | 6.1 | 0.00 | 0.00 | 0.00 | 66 | 1016.7 |
| 20260509124503 | 62 | 69 | 2.6 | 6.1 | 0.00 | 0.00 | 0.00 | 66 | 1016.9 |
| 20260509124403 | 62 | 89 | 2.6 | 6.1 | 0.00 | 0.00 | 0.00 | 66 | 1016.8 |
| 20260509124312 | 62 | 89 | 2.6 | 6.1 | 0.00 | 0.00 | 0.00 | 66 | 1016.8 |
| 20260509124304 | 62 | 88 | 2.6 | 6.1 | 0.00 | 0.00 | 0.00 | 67 | 1016.7 |
| 20260509124203 | 62 | 95 | 2.6 | 6.1 | 0.00 | 0.00 | 0.00 | 67 | 1016.8 |
| 20260509124003 | 62 | 110 | 2.6 | 6.1 | 0.00 | 0.00 | 0.00 | 66 | 1016.8 |
| 20260509123903 | 62 | 118 | 2.6 | 6.1 | 0.00 | 0.00 | 0.00 | 65 | 1016.9 |
| 20260509123803 | 62 | 115 | 2.6 | 6.1 | 0.00 | 0.00 | 0.00 | 65 | 1016.8 |
| 20260509123703 | 62 | 105 | 2.6 | 6.1 | 0.00 | 0.00 | 0.00 | 65 | 1016.8 |
| 20260509123603 | 62 | 106 | 2.6 | 6.1 | 0.00 | 0.00 | 0.00 | 66 | 1016.9 |
| 20260509123504 | 62 | 116 | 1.7 | 6.1 | 0.00 | 0.00 | 0.00 | 65 | 1016.9 |
| 20260509123403 | 62 | 118 | 1.7 | 6.1 | 0.00 | 0.00 | 0.00 | 65 | 1016.8 |
| 20260509123313 | 62 | 118 | 1.7 | 6.1 | 0.00 | 0.00 | 0.00 | 65 | 1016.8 |
| 20260509123303 | 62 | 135 | 1.7 | 6.1 | 0.00 | 0.00 | 0.00 | 65 | 1016.9 |
| 20260509123203 | 62 | 118 | 1.7 | 6.1 | 0.00 | 0.00 | 0.00 | 65 | 1017.0 |
| 20260509123003 | 63 | 95 | 1.7 | 6.1 | 0.00 | 0.00 | 0.00 | 66 | 1016.8 |
| 20260509122903 | 63 | 112 | 1.7 | 7.8 | 0.00 | 0.00 | 0.00 | 67 | 1016.8 |
| 20260509122803 | 63 | 233 | 1.7 | 7.8 | 0.00 | 0.00 | 0.00 | 67 | 1016.8 |
| 20260509122715 | 63 | 233 | 1.7 | 7.8 | 0.00 | 0.00 | 0.00 | 67 | 1016.8 |
| 20260509122703 | 63 | 165 | 1.7 | 7.8 | 0.00 | 0.00 | 0.00 | 67 | 1016.9 |
| 20260509122603 | 63 | 119 | 1.7 | 7.8 | 0.00 | 0.00 | 0.00 | 67 | 1016.9 |
| 20260509122403 | 62 | 70 | 1.7 | 7.8 | 0.00 | 0.00 | 0.00 | 68 | 1016.8 |
| 20260509122306 | 62 | 76 | 2.6 | 7.8 | 0.00 | 0.00 | 0.00 | 68 | 1016.9 |
| 20260509122203 | 62 | 90 | 1.7 | 7.8 | 0.00 | 0.00 | 0.00 | 68 | 1017.0 |
| 20260509122103 | 62 | 75 | 1.7 | 7.8 | 0.00 | 0.00 | 0.00 | 68 | 1016.7 |
| 20260509122003 | 62 | 70 | 1.7 | 7.8 | 0.00 | 0.00 | 0.00 | 68 | 1016.8 |
| 20260509121903 | 62 | 61 | 2.6 | 7.8 | 0.00 | 0.00 | 0.00 | 68 | 1016.8 |
| 20260509121803 | 62 | 70 | 2.6 | 7.8 | 0.00 | 0.00 | 0.00 | 68 | 1016.8 |
| 20260509121703 | 62 | 64 | 2.6 | 7.0 | 0.00 | 0.00 | 0.00 | 68 | 1016.9 |
| 20260509121603 | 62 | 66 | 2.6 | 7.0 | 0.00 | 0.00 | 0.00 | 68 | 1016.9 |
| 20260509121513 | 62 | 66 | 2.6 | 7.0 | 0.00 | 0.00 | 0.00 | 68 | 1016.9 |
| 20260509121503 | 62 | 65 | 2.6 | 6.1 | 0.00 | 0.00 | 0.00 | 68 | 1017.0 |
| 20260509121416 | 62 | 65 | 2.6 | 6.1 | 0.00 | 0.00 | 0.00 | 68 | 1017.0 |
| 20260509121403 | 62 | 85 | 1.7 | 6.1 | 0.00 | 0.00 | 0.00 | 69 | 1016.8 |
| 20260509121103 | 62 | 55 | 2.6 | 6.1 | 0.00 | 0.00 | 0.00 | 68 | 1017.0 |
| 20260509121003 | 62 | 55 | 2.6 | 6.1 | 0.00 | 0.00 | 0.00 | 68 | 1016.9 |
| 20260509120903 | 62 | 71 | 2.6 | 6.1 | 0.00 | 0.00 | 0.00 | 68 | 1016.8 |
| 20260509120803 | 62 | 63 | 2.6 | 6.1 | 0.00 | 0.00 | 0.00 | 68 | 1016.9 |
| 20260509120703 | 62 | 110 | 2.6 | 6.1 | 0.00 | 0.00 | 0.00 | 68 | 1016.8 |
| 20260509120603 | 62 | 148 | 2.6 | 6.1 | 0.00 | 0.00 | 0.00 | 68 | 1016.8 |
| 20260509120504 | 62 | 129 | 1.7 | 6.1 | 0.00 | 0.00 | 0.00 | 69 | 1016.9 |
| 20260509120403 | 62 | 106 | 1.7 | 6.1 | 0.00 | 0.00 | 0.00 | 69 | 1016.9 |
| 20260509120304 | 62 | 116 | 2.6 | 6.1 | 0.00 | 0.00 | 0.00 | 69 | 1016.9 |
| 20260509120203 | 62 | 114 | 2.6 | 6.1 | 0.00 | 0.00 | 0.00 | 69 | 1016.8 |
| 20260509120003 | 62 | 106 | 2.6 | 6.1 | 0.00 | 0.00 | 0.00 | 69 | 1016.7 |
| 20260509115903 | 62 | 105 | 2.6 | 6.1 | 0.00 | 0.00 | 0.00 | 69 | 1017.0 |
| 20260509115803 | 62 | 107 | 2.6 | 6.1 | 0.00 | 0.00 | 0.00 | 68 | 1016.9 |
| 20260509115704 | 62 | 108 | 2.6 | 6.1 | 0.00 | 0.00 | 0.00 | 69 | 1017.0 |
| 20260509115616 | 62 | 108 | 2.6 | 6.1 | 0.00 | 0.00 | 0.00 | 69 | 1017.0 |
| 20260509115603 | 62 | 94 | 2.6 | 6.1 | 0.00 | 0.00 | 0.00 | 69 | 1016.9 |
| 20260509115503 | 62 | 94 | 2.6 | 6.1 | 0.00 | 0.00 | 0.00 | 68 | 1017.1 |
| 20260509115306 | 62 | 98 | 2.6 | 6.1 | 0.00 | 0.00 | 0.00 | 69 | 1017.0 |
| 20260509115203 | 62 | 101 | 2.6 | 6.1 | 0.00 | 0.00 | 0.00 | 69 | 1017.0 |
| 20260509115104 | 62 | 110 | 2.6 | 6.1 | 0.00 | 0.00 | 0.00 | 68 | 1017.1 |
| 20260509115013 | 62 | 110 | 2.6 | 6.1 | 0.00 | 0.00 | 0.00 | 68 | 1017.1 |
| 20260509115004 | 62 | 115 | 2.6 | 6.1 | 0.00 | 0.00 | 0.00 | 69 | 1016.9 |
| 20260509114903 | 62 | 115 | 1.7 | 6.1 | 0.00 | 0.00 | 0.00 | 69 | 1017.0 |
| 20260509114713 | 62 | 112 | 2.6 | 6.1 | 0.00 | 0.00 | 0.00 | 69 | 1017.1 |
| 20260509114703 | 62 | 105 | 2.6 | 6.1 | 0.00 | 0.00 | 0.00 | 69 | 1017.1 |
| 20260509114604 | 62 | 108 | 2.6 | 7.0 | 0.00 | 0.00 | 0.00 | 68 | 1017.2 |
| 20260509114403 | 62 | 105 | 2.6 | 7.0 | 0.00 | 0.00 | 0.00 | 69 | 1016.9 |
| 20260509114303 | 62 | 109 | 2.6 | 7.0 | 0.00 | 0.00 | 0.00 | 69 | 1017.0 |
| 20260509114203 | 62 | 95 | 1.7 | 7.0 | 0.00 | 0.00 | 0.00 | 69 | 1017.2 |
| 20260509114103 | 62 | 95 | 1.7 | 7.0 | 0.00 | 0.00 | 0.00 | 69 | 1017.1 |
| 20260509114004 | 62 | 114 | 1.7 | 7.0 | 0.00 | 0.00 | 0.00 | 69 | 1017.1 |
| 20260509113903 | 62 | 107 | 1.7 | 7.0 | 0.00 | 0.00 | 0.00 | 69 | 1017.2 |
| 20260509113803 | 62 | 115 | 1.7 | 7.0 | 0.00 | 0.00 | 0.00 | 69 | 1017.1 |
| 20260509113703 | 62 | 103 | 1.7 | 7.0 | 0.00 | 0.00 | 0.00 | 69 | 1017.1 |
| 20260509113603 | 62 | 103 | 1.7 | 7.0 | 0.00 | 0.00 | 0.00 | 69 | 1017.3 |
| 20260509113517 | 62 | 103 | 1.7 | 7.0 | 0.00 | 0.00 | 0.00 | 69 | 1017.3 |
| 20260509113504 | 62 | 97 | 2.6 | 7.0 | 0.00 | 0.00 | 0.00 | 69 | 1017.2 |
| 20260509113404 | 62 | 91 | 2.6 | 7.0 | 0.00 | 0.00 | 0.00 | 69 | 1017.4 |
| 20260509113314 | 62 | 91 | 2.6 | 7.0 | 0.00 | 0.00 | 0.00 | 69 | 1017.4 |
| 20260509113204 | 62 | 87 | 2.6 | 7.0 | 0.00 | 0.00 | 0.00 | 69 | 1017.4 |
| 20260509113004 | 62 | 65 | 2.6 | 7.0 | 0.00 | 0.00 | 0.00 | 69 | 1017.5 |
| 20260509112903 | 62 | 70 | 2.6 | 7.0 | 0.00 | 0.00 | 0.00 | 69 | 1017.2 |
| 20260509112803 | 62 | 66 | 2.6 | 7.0 | 0.00 | 0.00 | 0.00 | 69 | 1017.2 |
| 20260509112703 | 62 | 63 | 2.6 | 7.0 | 0.00 | 0.00 | 0.00 | 69 | 1017.5 |
| 20260509112603 | 62 | 71 | 1.7 | 7.0 | 0.00 | 0.00 | 0.00 | 69 | 1017.4 |
| 20260509112503 | 62 | 67 | 1.7 | 7.0 | 0.00 | 0.00 | 0.00 | 69 | 1017.3 |
| 20260509112404 | 62 | 71 | 1.7 | 7.0 | 0.00 | 0.00 | 0.00 | 69 | 1017.3 |
| 20260509112306 | 62 | 64 | 1.7 | 7.0 | 0.00 | 0.00 | 0.00 | 69 | 1017.4 |
| 20260509112205 | 62 | 74 | 1.7 | 5.2 | 0.00 | 0.00 | 0.00 | 69 | 1017.3 |
| 20260509112103 | 63 | 78 | 1.7 | 5.2 | 0.00 | 0.00 | 0.00 | 69 | 1017.4 |
| 20260509112015 | 63 | 78 | 1.7 | 5.2 | 0.00 | 0.00 | 0.00 | 69 | 1017.4 |
| 20260509112004 | 63 | 96 | 1.7 | 5.2 | 0.00 | 0.00 | 0.00 | 69 | 1017.3 |
| 20260509111904 | 63 | 90 | 1.7 | 5.2 | 0.00 | 0.00 | 0.00 | 70 | 1017.4 |
| 20260509111703 | 62 | 97 | 1.7 | 5.2 | 0.00 | 0.00 | 0.00 | 70 | 1017.4 |
| 20260509111603 | 62 | 92 | 1.7 | 5.2 | 0.00 | 0.00 | 0.00 | 70 | 1017.4 |
| 20260509111503 | 62 | 105 | 1.7 | 5.2 | 0.00 | 0.00 | 0.00 | 70 | 1017.3 |
| 20260509111417 | 62 | 105 | 1.7 | 5.2 | 0.00 | 0.00 | 0.00 | 70 | 1017.3 |
| 20260509111403 | 62 | 107 | 1.7 | 5.2 | 0.00 | 0.00 | 0.00 | 70 | 1017.5 |
| 20260509111304 | 62 | 106 | 1.7 | 5.2 | 0.00 | 0.00 | 0.00 | 70 | 1017.5 |
| 20260509111214 | 62 | 106 | 1.7 | 5.2 | 0.00 | 0.00 | 0.00 | 70 | 1017.5 |
| 20260509111113 | 62 | 106 | 1.7 | 5.2 | 0.00 | 0.00 | 0.00 | 70 | 1017.4 |
| 20260509111103 | 62 | 122 | 1.7 | 5.2 | 0.00 | 0.00 | 0.00 | 70 | 1017.4 |
| 20260509110915 | 62 | 120 | 1.7 | 5.2 | 0.00 | 0.00 | 0.00 | 70 | 1017.3 |
| 20260509110804 | 62 | 159 | 1.7 | 5.2 | 0.00 | 0.00 | 0.00 | 70 | 1017.4 |
| 20260509110603 | 63 | 141 | 1.7 | 7.8 | 0.00 | 0.00 | 0.00 | 70 | 1017.3 |
| 20260509110514 | 63 | 141 | 1.7 | 7.8 | 0.00 | 0.00 | 0.00 | 70 | 1017.3 |
| 20260509110504 | 63 | 134 | 1.7 | 7.8 | 0.00 | 0.00 | 0.00 | 71 | 1017.4 |
| 20260509110403 | 63 | 122 | 1.7 | 7.8 | 0.00 | 0.00 | 0.00 | 71 | 1017.5 |
| 20260509110203 | 62 | 128 | 1.7 | 7.8 | 0.00 | 0.00 | 0.00 | 71 | 1017.4 |
| 20260509110103 | 62 | 107 | 1.7 | 7.8 | 0.00 | 0.00 | 0.00 | 71 | 1017.5 |
| 20260509110003 | 62 | 109 | 2.6 | 7.8 | 0.00 | 0.00 | 0.00 | 71 | 1017.5 |
| 20260509105903 | 62 | 87 | 1.7 | 7.8 | 0.00 | 0.00 | 0.00 | 71 | 1017.6 |
| 20260509105803 | 62 | 91 | 1.7 | 7.8 | 0.00 | 0.00 | 0.00 | 70 | 1017.3 |
| 20260509105703 | 62 | 96 | 2.6 | 7.8 | 0.00 | 0.00 | 0.00 | 70 | 1017.2 |
| 20260509105604 | 62 | 113 | 2.6 | 7.8 | 0.00 | 0.00 | 0.00 | 71 | 1017.5 |
| 20260509105504 | 62 | 101 | 1.7 | 7.0 | 0.00 | 0.00 | 0.00 | 71 | 1017.5 |
| 20260509105403 | 62 | 104 | 1.7 | 7.0 | 0.00 | 0.00 | 0.00 | 70 | 1017.4 |
| 20260509105306 | 62 | 106 | 1.7 | 7.0 | 0.00 | 0.00 | 0.00 | 70 | 1017.6 |
| 20260509105216 | 62 | 106 | 1.7 | 7.0 | 0.00 | 0.00 | 0.00 | 70 | 1017.6 |
| 20260509105203 | 62 | 102 | 1.7 | 7.0 | 0.00 | 0.00 | 0.00 | 70 | 1017.5 |
| 20260509105103 | 63 | 107 | 1.7 | 7.0 | 0.00 | 0.00 | 0.00 | 70 | 1017.5 |
| 20260509104903 | 63 | 102 | 1.7 | 5.2 | 0.00 | 0.00 | 0.00 | 70 | 1017.4 |
| 20260509104803 | 63 | 94 | 1.7 | 5.2 | 0.00 | 0.00 | 0.00 | 70 | 1017.5 |
| 20260509104704 | 63 | 88 | 0.9 | 5.2 | 0.00 | 0.00 | 0.00 | 70 | 1017.5 |
| 20260509104603 | 63 | 73 | 0.9 | 5.2 | 0.00 | 0.00 | 0.00 | 70 | 1017.3 |
| 20260509104503 | 63 | 62 | 0.9 | 5.2 | 0.00 | 0.00 | 0.00 | 71 | 1017.4 |
| 20260509104403 | 63 | 50 | 0.9 | 5.2 | 0.00 | 0.00 | 0.00 | 71 | 1017.5 |
| 20260509104303 | 63 | 50 | 1.7 | 5.2 | 0.00 | 0.00 | 0.00 | 71 | 1017.4 |
| 20260509104217 | 63 | 50 | 1.7 | 5.2 | 0.00 | 0.00 | 0.00 | 71 | 1017.4 |
| 20260509104204 | 63 | 55 | 1.7 | 5.2 | 0.00 | 0.00 | 0.00 | 72 | 1017.4 |
| 20260509104108 | 62 | 67 | 1.7 | 5.2 | 0.00 | 0.00 | 0.00 | 72 | 1017.6 |
| 20260509103918 | 62 | 71 | 1.7 | 5.2 | 0.00 | 0.00 | 0.00 | 72 | 1017.5 |
| 20260509103903 | 62 | 74 | 1.7 | 5.2 | 0.00 | 0.00 | 0.00 | 72 | 1017.5 |